GEFSNGP_prec_meanprecacc_168.txt.gz
Total_Precipitation_Accumulation
0.12 0.19 0.23 0.28 0.23 0.17 0.14 0.14 0.23 0.30 0.41 0.49 0.50 0.62 0.87 0.71 0.54 0.43 0.46 0.39 0.36 0.38 0.46 0.50 0.58 0.61 0.65 0.73 0.82 0.87 1.03 1.20 1.41 1.62 1.48 1.29 1.26 1.23 1.21 1.26 1.37 1.60 1.74 1.82
0.12 0.16 0.19 0.24 0.26 0.19 0.16 0.14 0.13 0.23 0.39 0.45 0.55 0.59 0.68 0.65 0.58 0.50 0.54 0.53 0.50 0.56 0.55 0.59 0.68 0.67 0.64 0.62 0.74 0.87 1.02 1.14 1.29 1.37 1.26 1.11 1.00 1.01 1.06 1.12 1.25 1.42 1.57 1.65
0.21 0.19 0.22 0.27 0.26 0.22 0.19 0.20 0.21 0.31 0.42 0.43 0.55 0.53 0.56 0.69 0.72 0.66 0.51 0.52 0.56 0.51 0.55 0.58 0.63 0.64 0.62 0.61 0.78 1.03 1.10 1.13 1.21 1.29 1.27 1.17 1.00 0.98 1.01 1.09 1.22 1.30 1.35 1.40
0.35 0.38 0.44 0.35 0.32 0.28 0.26 0.31 0.31 0.35 0.39 0.44 0.56 0.54 0.42 0.44 0.51 0.59 0.61 0.60 0.58 0.56 0.55 0.53 0.54 0.59 0.58 0.61 0.78 0.98 1.08 1.16 1.34 1.45 1.41 1.33 1.25 1.20 1.22 1.24 1.25 1.27 1.29 1.31
0.56 0.56 0.47 0.45 0.46 0.46 0.48 0.58 0.52 0.47 0.45 0.48 0.50 0.54 0.51 0.40 0.36 0.43 0.51 0.62 0.61 0.57 0.56 0.54 0.54 0.59 0.64 0.69 0.87 1.10 1.22 1.32 1.42 1.57 1.59 1.54 1.57 1.59 1.57 1.51 1.40 1.37 1.39 1.43
0.64 0.73 0.72 0.68 0.58 0.52 0.63 0.97 0.87 0.71 0.59 0.56 0.56 0.79 0.87 0.66 0.49 0.45 0.46 0.58 0.68 0.66 0.59 0.57 0.56 0.63 0.78 0.91 1.07 1.20 1.36 1.49 1.54 1.71 1.81 1.76 1.80 1.86 1.88 1.90 1.80 1.75 1.64 1.55
0.73 0.83 0.86 0.79 0.60 0.61 1.07 1.37 1.06 0.89 0.79 0.73 0.79 0.79 0.78 0.68 0.58 0.48 0.47 0.53 0.62 0.76 0.68 0.63 0.66 0.80 0.97 1.07 1.17 1.22 1.38 1.52 1.63 1.82 1.97 2.07 2.21 2.28 2.25 2.22 2.15 2.02 1.81 1.69
0.92 1.11 1.14 0.76 0.74 1.00 1.20 1.08 1.06 1.06 1.07 1.02 0.92 0.72 0.63 0.61 0.53 0.49 0.47 0.47 0.47 0.53 0.58 0.63 0.71 0.91 1.11 1.19 1.20 1.25 1.33 1.50 1.74 1.93 1.97 2.03 2.30 2.38 2.35 2.28 2.18 2.04 1.90 1.71
1.11 1.24 1.02 0.81 0.87 0.92 1.03 1.12 1.13 1.13 1.13 1.02 0.89 0.75 0.64 0.60 0.50 0.46 0.44 0.43 0.47 0.51 0.59 0.68 0.80 1.03 1.32 1.41 1.39 1.34 1.40 1.55 1.79 1.97 2.12 2.24 2.33 2.30 2.27 2.26 2.18 2.04 1.94 1.79
1.21 1.20 0.96 0.91 0.93 0.90 0.97 1.03 1.13 1.06 0.99 0.92 0.86 0.76 0.64 0.53 0.45 0.42 0.44 0.44 0.48 0.53 0.61 0.71 0.85 1.05 1.28 1.30 1.27 1.29 1.31 1.40 1.55 1.68 1.76 1.89 2.06 2.04 1.95 1.96 2.00 1.98 1.91 1.83
1.25 1.27 1.17 1.11 1.11 1.00 0.89 0.85 0.83 0.83 0.83 0.85 0.84 0.82 0.66 0.52 0.44 0.38 0.38 0.40 0.46 0.59 0.72 0.79 0.87 0.96 1.05 1.11 1.16 1.20 1.18 1.21 1.30 1.40 1.50 1.62 1.70 1.77 1.74 1.71 1.63 1.65 1.66 1.67
1.36 1.22 1.18 1.30 1.18 1.05 0.88 0.81 0.78 0.74 0.73 0.75 0.76 0.76 0.63 0.54 0.49 0.40 0.35 0.39 0.50 0.61 0.71 0.80 0.91 1.04 1.09 1.10 1.18 1.25 1.24 1.20 1.19 1.23 1.30 1.37 1.46 1.47 1.41 1.30 1.20 1.14 1.11 1.13
1.07 0.99 0.98 1.06 1.00 0.91 0.84 0.86 0.91 0.85 0.77 0.72 0.70 0.64 0.55 0.48 0.44 0.40 0.40 0.44 0.52 0.56 0.60 0.68 0.80 0.97 1.09 1.24 1.31 1.36 1.33 1.26 1.23 1.17 1.18 1.26 1.33 1.39 1.37 1.20 1.03 0.90 0.82 0.78
0.88 0.82 0.89 0.90 0.87 0.81 0.78 0.82 0.87 0.77 0.73 0.71 0.71 0.64 0.55 0.49 0.45 0.42 0.42 0.44 0.47 0.49 0.52 0.64 0.74 0.82 0.93 1.14 1.31 1.37 1.35 1.29 1.23 1.17 1.13 1.16 1.20 1.22 1.28 1.34 1.24 1.05 0.86 0.71
1.01 0.80 0.81 0.80 0.79 0.77 0.69 0.70 0.71 0.66 0.61 0.64 0.64 0.63 0.56 0.52 0.46 0.44 0.42 0.42 0.47 0.53 0.55 0.65 0.76 0.82 0.92 1.06 1.15 1.16 1.15 1.12 1.07 1.09 1.11 1.10 1.13 1.14 1.13 1.20 1.20 1.15 1.01 0.84
0.98 0.77 0.67 0.66 0.70 0.76 0.70 0.65 0.65 0.64 0.59 0.55 0.56 0.51 0.46 0.42 0.41 0.42 0.42 0.44 0.54 0.61 0.66 0.78 0.84 0.87 0.99 1.10 1.16 1.14 1.12 1.07 1.00 1.01 1.06 1.08 1.09 1.10 1.07 1.14 1.14 1.15 1.05 0.88
0.93 0.79 0.66 0.59 0.59 0.64 0.67 0.58 0.52 0.53 0.53 0.49 0.48 0.45 0.40 0.38 0.41 0.41 0.39 0.40 0.49 0.59 0.69 0.86 0.92 0.91 1.03 1.15 1.22 1.20 1.12 1.02 0.88 0.85 0.90 0.96 1.01 1.01 0.99 1.01 1.02 1.04 0.94 0.75
0.77 0.71 0.64 0.59 0.56 0.54 0.59 0.57 0.49 0.50 0.53 0.48 0.42 0.41 0.42 0.48 0.58 0.63 0.60 0.56 0.59 0.59 0.63 0.76 0.84 0.92 1.02 1.12 1.18 1.19 1.15 1.06 0.92 0.79 0.77 0.83 0.89 0.92 0.92 0.92 0.91 0.92 0.83 0.63
0.60 0.62 0.60 0.57 0.55 0.53 0.59 0.58 0.56 0.55 0.54 0.48 0.44 0.43 0.47 0.57 0.70 0.78 0.78 0.79 0.82 0.79 0.73 0.71 0.78 0.82 0.92 0.99 1.02 1.10 1.06 0.99 0.89 0.74 0.70 0.75 0.80 0.88 0.87 0.81 0.82 0.82 0.73 0.61
0.53 0.52 0.53 0.58 0.63 0.65 0.67 0.65 0.63 0.59 0.54 0.50 0.52 0.54 0.59 0.64 0.75 0.84 0.85 0.83 0.83 0.86 0.80 0.71 0.68 0.70 0.76 0.82 0.87 0.92 0.91 0.90 0.86 0.69 0.65 0.77 0.84 0.88 0.84 0.76 0.77 0.75 0.65 0.61
0.52 0.44 0.43 0.43 0.44 0.48 0.48 0.46 0.48 0.51 0.53 0.60 0.71 0.80 0.83 0.79 0.82 0.93 1.01 0.90 0.73 0.75 0.72 0.65 0.57 0.57 0.60 0.72 0.77 0.81 0.81 0.81 0.85 0.75 0.66 0.74 0.82 0.85 0.81 0.74 0.69 0.63 0.57 0.59
0.51 0.44 0.40 0.38 0.36 0.35 0.29 0.28 0.34 0.46 0.55 0.61 0.70 0.83 0.94 0.98 0.99 0.98 0.90 0.88 0.79 0.75 0.67 0.58 0.52 0.50 0.49 0.56 0.69 0.74 0.73 0.73 0.77 0.75 0.70 0.72 0.79 0.81 0.78 0.69 0.62 0.55 0.53 0.55
0.48 0.44 0.40 0.35 0.34 0.34 0.29 0.27 0.29 0.38 0.50 0.58 0.67 0.85 1.01 1.05 1.13 1.26 1.08 0.80 0.73 0.73 0.66 0.56 0.51 0.47 0.44 0.42 0.56 0.65 0.67 0.71 0.74 0.73 0.70 0.65 0.64 0.67 0.68 0.62 0.57 0.56 0.59 0.62
0.49 0.43 0.46 0.44 0.38 0.33 0.33 0.34 0.35 0.41 0.48 0.53 0.61 0.80 1.02 1.16 1.11 1.00 0.94 0.82 0.71 0.64 0.60 0.54 0.45 0.42 0.41 0.37 0.45 0.55 0.60 0.66 0.64 0.63 0.60 0.58 0.61 0.65 0.62 0.60 0.58 0.59 0.63 0.65
0.47 0.45 0.47 0.49 0.47 0.46 0.48 0.51 0.53 0.55 0.59 0.59 0.59 0.65 0.79 1.01 1.15 0.98 0.79 0.72 0.66 0.58 0.56 0.55 0.47 0.42 0.37 0.35 0.37 0.44 0.50 0.54 0.53 0.53 0.52 0.55 0.59 0.59 0.54 0.53 0.55 0.58 0.62 0.65
0.46 0.45 0.46 0.47 0.48 0.53 0.62 0.70 0.78 0.80 0.85 0.88 0.79 0.72 0.74 0.83 0.94 0.92 0.78 0.67 0.62 0.58 0.53 0.53 0.49 0.44 0.39 0.37 0.35 0.39 0.45 0.52 0.54 0.53 0.50 0.55 0.54 0.51 0.52 0.54 0.51 0.51 0.53 0.54
0.46 0.43 0.42 0.46 0.50 0.55 0.69 0.82 0.93 1.00 1.08 1.15 1.08 0.89 0.82 0.79 0.83 0.84 0.77 0.70 0.66 0.63 0.61 0.58 0.55 0.52 0.49 0.45 0.39 0.38 0.45 0.52 0.55 0.56 0.57 0.59 0.61 0.61 0.57 0.54 0.50 0.47 0.46 0.42

GEFSNGP_prec_meanprecacc_174.txt.gz
Total_Precipitation_Accumulation
0.12 0.19 0.23 0.28 0.23 0.17 0.14 0.14 0.23 0.30 0.42 0.50 0.50 0.63 0.88 0.73 0.56 0.45 0.48 0.42 0.40 0.42 0.52 0.54 0.61 0.64 0.68 0.75 0.83 0.89 1.07 1.24 1.47 1.70 1.54 1.35 1.32 1.28 1.25 1.30 1.42 1.64 1.80 1.90
0.12 0.16 0.20 0.24 0.26 0.19 0.16 0.14 0.13 0.23 0.39 0.46 0.56 0.60 0.70 0.67 0.60 0.53 0.58 0.57 0.55 0.60 0.61 0.65 0.72 0.70 0.67 0.64 0.76 0.89 1.06 1.19 1.36 1.46 1.34 1.17 1.06 1.07 1.11 1.17 1.32 1.47 1.62 1.70
0.21 0.19 0.22 0.27 0.26 0.22 0.19 0.20 0.21 0.31 0.42 0.43 0.56 0.54 0.57 0.71 0.74 0.69 0.54 0.57 0.61 0.56 0.60 0.62 0.68 0.69 0.66 0.64 0.81 1.05 1.11 1.16 1.27 1.36 1.36 1.25 1.07 1.04 1.07 1.15 1.29 1.37 1.41 1.46
0.35 0.39 0.44 0.36 0.32 0.28 0.26 0.31 0.31 0.35 0.40 0.45 0.58 0.55 0.44 0.46 0.53 0.63 0.65 0.65 0.62 0.60 0.59 0.57 0.57 0.62 0.62 0.66 0.81 1.00 1.09 1.18 1.37 1.51 1.47 1.40 1.33 1.27 1.29 1.31 1.32 1.33 1.36 1.38
0.56 0.56 0.47 0.46 0.46 0.46 0.49 0.59 0.52 0.47 0.45 0.49 0.51 0.55 0.53 0.43 0.39 0.46 0.55 0.67 0.66 0.61 0.60 0.58 0.57 0.61 0.66 0.71 0.89 1.11 1.24 1.33 1.43 1.59 1.63 1.61 1.66 1.68 1.67 1.62 1.50 1.45 1.46 1.48
0.65 0.73 0.72 0.68 0.58 0.52 0.63 0.97 0.88 0.72 0.60 0.58 0.58 0.80 0.88 0.71 0.56 0.51 0.50 0.62 0.73 0.70 0.64 0.62 0.59 0.65 0.79 0.92 1.08 1.21 1.37 1.50 1.55 1.72 1.83 1.79 1.85 1.93 1.98 2.01 1.91 1.85 1.72 1.62
0.74 0.83 0.86 0.79 0.60 0.61 1.08 1.37 1.07 0.90 0.81 0.75 0.81 0.80 0.79 0.70 0.60 0.52 0.51 0.57 0.67 0.82 0.73 0.67 0.69 0.82 0.99 1.08 1.17 1.23 1.39 1.53 1.63 1.83 1.99 2.10 2.24 2.33 2.32 2.29 2.24 2.11 1.91 1.80
0.93 1.11 1.15 0.77 0.74 1.00 1.20 1.09 1.08 1.08 1.11 1.07 0.95 0.75 0.66 0.64 0.56 0.53 0.52 0.53 0.53 0.58 0.63 0.67 0.74 0.93 1.13 1.21 1.21 1.26 1.34 1.51 1.75 1.95 2.00 2.06 2.34 2.42 2.40 2.34 2.24 2.11 1.98 1.81
1.11 1.24 1.02 0.82 0.88 0.93 1.04 1.13 1.16 1.16 1.18 1.09 0.94 0.80 0.70 0.65 0.55 0.50 0.48 0.48 0.51 0.54 0.61 0.70 0.83 1.06 1.34 1.43 1.40 1.36 1.42 1.57 1.81 1.99 2.15 2.27 2.39 2.36 2.33 2.32 2.23 2.09 1.99 1.85
1.23 1.21 0.98 0.92 0.94 0.91 0.98 1.04 1.16 1.10 1.03 0.98 0.93 0.82 0.70 0.59 0.49 0.45 0.48 0.48 0.50 0.54 0.62 0.72 0.86 1.06 1.30 1.31 1.29 1.31 1.34 1.43 1.58 1.72 1.79 1.92 2.10 2.07 1.99 2.00 2.05 2.03 1.96 1.88
1.28 1.31 1.20 1.14 1.13 1.02 0.92 0.87 0.86 0.87 0.86 0.89 0.89 0.87 0.72 0.60 0.51 0.43 0.42 0.44 0.49 0.60 0.73 0.80 0.88 0.98 1.06 1.13 1.18 1.22 1.21 1.24 1.33 1.43 1.55 1.67 1.74 1.81 1.78 1.75 1.68 1.69 1.70 1.70
1.41 1.27 1.23 1.37 1.24 1.10 0.92 0.85 0.81 0.76 0.76 0.79 0.79 0.80 0.68 0.59 0.55 0.45 0.38 0.42 0.52 0.62 0.72 0.81 0.92 1.05 1.10 1.12 1.20 1.28 1.27 1.23 1.22 1.27 1.35 1.41 1.51 1.51 1.47 1.37 1.26 1.18 1.15 1.16
1.12 1.05 1.03 1.11 1.06 0.97 0.89 0.91 0.94 0.88 0.81 0.76 0.75 0.72 0.62 0.55 0.50 0.44 0.44 0.47 0.55 0.58 0.62 0.68 0.80 0.97 1.10 1.25 1.32 1.38 1.36 1.29 1.26 1.20 1.21 1.28 1.36 1.42 1.41 1.24 1.05 0.92 0.83 0.80
0.93 0.88 0.95 0.96 0.93 0.86 0.85 0.89 0.92 0.82 0.79 0.75 0.75 0.70 0.62 0.55 0.50 0.46 0.45 0.46 0.49 0.51 0.54 0.64 0.74 0.83 0.94 1.15 1.32 1.38 1.37 1.32 1.25 1.19 1.15 1.18 1.22 1.24 1.31 1.36 1.26 1.07 0.87 0.72
1.08 0.88 0.88 0.87 0.86 0.84 0.76 0.77 0.76 0.71 0.66 0.68 0.68 0.67 0.61 0.56 0.50 0.48 0.45 0.44 0.48 0.54 0.56 0.66 0.76 0.82 0.93 1.06 1.15 1.17 1.17 1.14 1.10 1.11 1.13 1.12 1.15 1.16 1.15 1.22 1.22 1.16 1.02 0.85
1.04 0.85 0.75 0.73 0.77 0.83 0.78 0.72 0.70 0.68 0.63 0.59 0.59 0.54 0.50 0.46 0.44 0.44 0.44 0.46 0.56 0.62 0.67 0.79 0.84 0.87 1.00 1.11 1.17 1.15 1.14 1.09 1.02 1.03 1.08 1.10 1.11 1.11 1.09 1.15 1.16 1.16 1.06 0.89
0.97 0.86 0.75 0.66 0.65 0.69 0.72 0.64 0.59 0.59 0.57 0.52 0.50 0.47 0.42 0.41 0.43 0.43 0.41 0.42 0.51 0.61 0.70 0.87 0.92 0.92 1.04 1.16 1.23 1.21 1.14 1.04 0.91 0.88 0.92 0.98 1.03 1.03 1.01 1.03 1.03 1.06 0.96 0.76
0.80 0.76 0.72 0.68 0.62 0.59 0.64 0.61 0.54 0.55 0.57 0.50 0.44 0.43 0.45 0.50 0.60 0.65 0.62 0.58 0.62 0.61 0.65 0.78 0.85 0.93 1.03 1.13 1.19 1.20 1.17 1.08 0.95 0.83 0.80 0.86 0.92 0.96 0.96 0.95 0.95 0.95 0.86 0.66
0.64 0.67 0.66 0.66 0.64 0.59 0.63 0.62 0.60 0.59 0.57 0.51 0.46 0.47 0.50 0.59 0.72 0.80 0.80 0.81 0.85 0.82 0.75 0.72 0.80 0.84 0.93 1.01 1.04 1.11 1.09 1.03 0.93 0.77 0.73 0.78 0.83 0.92 0.92 0.85 0.86 0.86 0.77 0.64
0.59 0.59 0.59 0.63 0.71 0.72 0.71 0.68 0.66 0.63 0.58 0.54 0.55 0.57 0.61 0.66 0.77 0.85 0.86 0.86 0.85 0.89 0.83 0.74 0.71 0.73 0.79 0.85 0.90 0.95 0.93 0.94 0.90 0.74 0.68 0.79 0.86 0.92 0.88 0.80 0.81 0.79 0.69 0.66
0.59 0.51 0.49 0.48 0.50 0.53 0.52 0.49 0.52 0.55 0.57 0.62 0.73 0.83 0.86 0.81 0.83 0.94 1.02 0.91 0.75 0.77 0.76 0.70 0.63 0.64 0.65 0.76 0.80 0.83 0.82 0.82 0.86 0.78 0.71 0.78 0.85 0.88 0.85 0.78 0.73 0.68 0.62 0.65
0.57 0.50 0.46 0.44 0.41 0.39 0.33 0.32 0.39 0.49 0.57 0.63 0.72 0.85 0.96 1.00 1.01 1.00 0.91 0.89 0.80 0.77 0.69 0.61 0.54 0.52 0.52 0.58 0.70 0.74 0.74 0.73 0.77 0.76 0.72 0.75 0.82 0.85 0.83 0.74 0.67 0.61 0.58 0.59
0.54 0.51 0.46 0.41 0.40 0.38 0.32 0.30 0.32 0.41 0.52 0.60 0.69 0.88 1.03 1.06 1.14 1.27 1.09 0.81 0.73 0.73 0.66 0.56 0.51 0.48 0.44 0.43 0.57 0.66 0.67 0.72 0.74 0.74 0.70 0.66 0.66 0.69 0.70 0.65 0.60 0.59 0.62 0.65
0.55 0.49 0.51 0.48 0.41 0.35 0.35 0.36 0.37 0.43 0.50 0.55 0.64 0.83 1.04 1.18 1.13 1.00 0.95 0.83 0.71 0.64 0.60 0.54 0.45 0.43 0.41 0.38 0.46 0.55 0.61 0.66 0.65 0.63 0.61 0.58 0.61 0.65 0.63 0.60 0.59 0.60 0.65 0.67
0.52 0.50 0.51 0.53 0.50 0.49 0.51 0.53 0.54 0.56 0.60 0.61 0.61 0.67 0.80 1.02 1.16 0.99 0.80 0.72 0.67 0.58 0.56 0.55 0.47 0.42 0.38 0.35 0.37 0.44 0.50 0.54 0.54 0.53 0.52 0.55 0.59 0.59 0.54 0.53 0.55 0.58 0.62 0.65
0.51 0.50 0.51 0.52 0.52 0.56 0.64 0.72 0.79 0.82 0.86 0.89 0.80 0.73 0.76 0.85 0.95 0.93 0.80 0.69 0.64 0.60 0.54 0.53 0.50 0.44 0.40 0.38 0.36 0.39 0.45 0.52 0.54 0.54 0.51 0.55 0.54 0.52 0.52 0.54 0.51 0.51 0.54 0.54
0.51 0.47 0.46 0.50 0.54 0.58 0.71 0.84 0.95 1.03 1.09 1.17 1.10 0.91 0.83 0.80 0.84 0.85 0.79 0.72 0.68 0.66 0.63 0.59 0.55 0.52 0.49 0.45 0.40 0.39 0.45 0.52 0.55 0.56 0.57 0.60 0.62 0.61 0.57 0.55 0.50 0.47 0.47 0.43

GEFSNGP_prec_meanprecacc_180.txt.gz
Total_Precipitation_Accumulation
0.12 0.19 0.23 0.28 0.23 0.17 0.14 0.14 0.23 0.30 0.42 0.50 0.50 0.63 0.88 0.73 0.56 0.46 0.48 0.42 0.40 0.43 0.53 0.55 0.62 0.64 0.69 0.76 0.84 0.91 1.09 1.28 1.55 1.79 1.62 1.40 1.37 1.34 1.29 1.34 1.45 1.69 1.84 1.94
0.12 0.16 0.20 0.24 0.26 0.19 0.16 0.14 0.13 0.23 0.39 0.46 0.56 0.60 0.70 0.67 0.60 0.53 0.58 0.57 0.55 0.61 0.62 0.66 0.73 0.71 0.67 0.65 0.76 0.90 1.08 1.22 1.42 1.52 1.38 1.20 1.10 1.12 1.14 1.20 1.36 1.52 1.67 1.77
0.21 0.19 0.22 0.27 0.26 0.22 0.19 0.20 0.21 0.31 0.42 0.43 0.56 0.54 0.57 0.71 0.75 0.69 0.54 0.57 0.62 0.57 0.61 0.63 0.68 0.70 0.67 0.65 0.81 1.06 1.12 1.17 1.28 1.38 1.38 1.28 1.10 1.07 1.12 1.19 1.33 1.42 1.46 1.52
0.35 0.39 0.44 0.36 0.32 0.28 0.26 0.31 0.31 0.35 0.40 0.45 0.58 0.55 0.44 0.46 0.53 0.63 0.65 0.66 0.63 0.62 0.62 0.59 0.58 0.63 0.63 0.66 0.82 1.00 1.10 1.19 1.38 1.53 1.51 1.45 1.38 1.31 1.34 1.39 1.39 1.39 1.42 1.44
0.56 0.56 0.47 0.46 0.46 0.46 0.49 0.59 0.52 0.47 0.45 0.49 0.51 0.55 0.53 0.43 0.39 0.47 0.55 0.68 0.68 0.63 0.64 0.63 0.62 0.63 0.67 0.72 0.90 1.12 1.24 1.34 1.45 1.60 1.65 1.64 1.70 1.73 1.72 1.69 1.56 1.50 1.52 1.55
0.65 0.73 0.72 0.68 0.58 0.52 0.63 0.98 0.88 0.72 0.60 0.58 0.58 0.81 0.88 0.71 0.56 0.52 0.51 0.62 0.75 0.72 0.67 0.68 0.65 0.68 0.81 0.94 1.08 1.21 1.38 1.50 1.55 1.73 1.84 1.81 1.87 1.96 2.01 2.04 1.96 1.93 1.82 1.71
0.74 0.83 0.86 0.79 0.60 0.61 1.08 1.38 1.07 0.90 0.81 0.75 0.81 0.81 0.79 0.70 0.61 0.52 0.51 0.58 0.69 0.85 0.77 0.71 0.73 0.86 1.02 1.10 1.18 1.24 1.40 1.53 1.64 1.84 2.01 2.12 2.26 2.35 2.34 2.32 2.30 2.22 2.02 1.89
0.93 1.11 1.15 0.77 0.74 1.00 1.21 1.09 1.08 1.08 1.11 1.07 0.96 0.76 0.66 0.64 0.57 0.54 0.53 0.55 0.56 0.61 0.66 0.71 0.77 0.96 1.16 1.22 1.22 1.27 1.34 1.51 1.76 1.96 2.01 2.08 2.35 2.44 2.41 2.35 2.26 2.14 2.02 1.86
1.12 1.24 1.02 0.82 0.88 0.93 1.04 1.13 1.16 1.17 1.19 1.09 0.95 0.81 0.70 0.67 0.56 0.51 0.50 0.51 0.53 0.56 0.65 0.75 0.86 1.09 1.36 1.44 1.41 1.36 1.43 1.59 1.82 2.01 2.16 2.29 2.41 2.38 2.34 2.33 2.25 2.12 2.02 1.87
1.23 1.21 0.98 0.92 0.94 0.91 0.98 1.04 1.16 1.10 1.03 0.99 0.94 0.83 0.71 0.61 0.50 0.46 0.49 0.49 0.51 0.56 0.65 0.74 0.89 1.09 1.32 1.33 1.30 1.33 1.36 1.46 1.61 1.74 1.82 1.95 2.12 2.09 2.00 2.01 2.06 2.05 1.98 1.90
1.29 1.32 1.21 1.15 1.14 1.03 0.92 0.88 0.87 0.88 0.87 0.90 0.90 0.88 0.73 0.61 0.52 0.44 0.44 0.46 0.51 0.62 0.75 0.82 0.89 0.99 1.08 1.15 1.20 1.24 1.23 1.26 1.36 1.46 1.57 1.69 1.77 1.84 1.80 1.77 1.71 1.72 1.73 1.73
1.43 1.28 1.24 1.38 1.26 1.11 0.92 0.85 0.81 0.78 0.77 0.80 0.81 0.81 0.69 0.60 0.57 0.47 0.40 0.44 0.54 0.64 0.73 0.81 0.92 1.05 1.11 1.13 1.22 1.30 1.29 1.25 1.24 1.29 1.37 1.44 1.53 1.55 1.52 1.41 1.30 1.22 1.18 1.19
1.13 1.06 1.05 1.13 1.08 0.98 0.91 0.92 0.96 0.91 0.84 0.78 0.77 0.73 0.63 0.56 0.52 0.46 0.46 0.49 0.58 0.60 0.62 0.69 0.80 0.97 1.11 1.25 1.33 1.39 1.37 1.30 1.27 1.21 1.23 1.30 1.37 1.43 1.43 1.27 1.08 0.94 0.85 0.82
0.95 0.90 0.97 0.97 0.95 0.89 0.86 0.91 0.94 0.84 0.81 0.78 0.77 0.71 0.64 0.57 0.51 0.48 0.47 0.48 0.51 0.52 0.54 0.65 0.74 0.83 0.94 1.15 1.32 1.38 1.37 1.32 1.25 1.19 1.15 1.19 1.22 1.25 1.32 1.38 1.28 1.09 0.89 0.74
1.11 0.91 0.91 0.90 0.89 0.87 0.79 0.79 0.78 0.72 0.67 0.69 0.69 0.69 0.64 0.58 0.52 0.49 0.46 0.45 0.49 0.54 0.57 0.66 0.76 0.82 0.93 1.07 1.16 1.18 1.17 1.15 1.11 1.12 1.14 1.13 1.16 1.17 1.16 1.23 1.23 1.17 1.03 0.86
1.07 0.89 0.78 0.77 0.80 0.86 0.81 0.75 0.73 0.70 0.64 0.59 0.60 0.55 0.52 0.47 0.45 0.45 0.45 0.47 0.56 0.63 0.68 0.79 0.84 0.87 1.00 1.12 1.17 1.16 1.15 1.10 1.03 1.04 1.09 1.11 1.12 1.13 1.10 1.16 1.17 1.17 1.07 0.89
1.01 0.91 0.79 0.70 0.69 0.73 0.75 0.68 0.62 0.61 0.59 0.54 0.51 0.48 0.44 0.42 0.45 0.44 0.41 0.43 0.51 0.61 0.70 0.87 0.92 0.92 1.04 1.16 1.24 1.21 1.14 1.05 0.92 0.89 0.93 0.99 1.04 1.04 1.03 1.05 1.05 1.07 0.97 0.77
0.85 0.80 0.76 0.71 0.64 0.62 0.68 0.64 0.56 0.57 0.59 0.53 0.47 0.46 0.47 0.52 0.62 0.67 0.63 0.59 0.62 0.61 0.65 0.78 0.86 0.94 1.04 1.13 1.19 1.21 1.17 1.08 0.95 0.83 0.81 0.88 0.94 0.97 0.97 0.97 0.96 0.96 0.87 0.67
0.68 0.71 0.70 0.68 0.66 0.62 0.67 0.64 0.61 0.60 0.59 0.53 0.49 0.49 0.53 0.61 0.74 0.81 0.81 0.82 0.85 0.83 0.75 0.73 0.80 0.84 0.94 1.01 1.05 1.12 1.09 1.03 0.94 0.78 0.75 0.80 0.86 0.94 0.93 0.87 0.88 0.87 0.78 0.66
0.63 0.63 0.62 0.66 0.73 0.75 0.75 0.71 0.68 0.65 0.60 0.56 0.57 0.60 0.64 0.69 0.78 0.87 0.88 0.87 0.86 0.90 0.83 0.74 0.71 0.74 0.80 0.86 0.90 0.95 0.94 0.95 0.92 0.76 0.70 0.82 0.90 0.96 0.92 0.83 0.83 0.80 0.71 0.67
0.62 0.55 0.53 0.52 0.53 0.57 0.56 0.53 0.55 0.58 0.60 0.65 0.75 0.86 0.89 0.84 0.85 0.96 1.04 0.93 0.76 0.78 0.77 0.71 0.64 0.65 0.66 0.78 0.82 0.86 0.85 0.85 0.89 0.81 0.74 0.81 0.89 0.93 0.90 0.82 0.76 0.70 0.64 0.66
0.60 0.54 0.50 0.48 0.45 0.43 0.37 0.35 0.41 0.52 0.60 0.66 0.75 0.89 1.01 1.04 1.04 1.02 0.94 0.91 0.82 0.79 0.70 0.62 0.56 0.54 0.54 0.60 0.72 0.77 0.77 0.76 0.79 0.78 0.74 0.78 0.86 0.88 0.86 0.78 0.72 0.64 0.60 0.62
0.58 0.55 0.50 0.45 0.44 0.42 0.36 0.34 0.35 0.44 0.54 0.62 0.73 0.93 1.08 1.11 1.18 1.30 1.11 0.83 0.75 0.74 0.67 0.56 0.52 0.49 0.45 0.43 0.57 0.67 0.68 0.72 0.75 0.74 0.71 0.67 0.68 0.72 0.73 0.67 0.62 0.61 0.65 0.67
0.60 0.55 0.56 0.53 0.47 0.41 0.41 0.41 0.41 0.46 0.52 0.58 0.67 0.87 1.08 1.21 1.15 1.03 0.97 0.85 0.73 0.65 0.61 0.55 0.46 0.43 0.42 0.38 0.46 0.55 0.61 0.66 0.65 0.63 0.61 0.59 0.62 0.66 0.64 0.62 0.59 0.61 0.66 0.68
0.59 0.55 0.57 0.59 0.57 0.55 0.55 0.56 0.58 0.59 0.63 0.64 0.64 0.70 0.82 1.04 1.18 1.00 0.81 0.74 0.69 0.60 0.57 0.56 0.48 0.42 0.39 0.36 0.37 0.44 0.50 0.54 0.54 0.53 0.52 0.55 0.60 0.59 0.55 0.53 0.56 0.59 0.63 0.66
0.58 0.56 0.59 0.59 0.58 0.60 0.67 0.75 0.82 0.85 0.89 0.92 0.83 0.76 0.78 0.86 0.96 0.95 0.81 0.71 0.66 0.62 0.56 0.54 0.50 0.45 0.40 0.38 0.36 0.39 0.45 0.52 0.55 0.54 0.51 0.55 0.54 0.52 0.53 0.55 0.52 0.52 0.55 0.55
0.58 0.54 0.54 0.56 0.58 0.62 0.74 0.86 0.97 1.05 1.12 1.20 1.12 0.94 0.85 0.82 0.85 0.86 0.80 0.73 0.70 0.68 0.64 0.60 0.56 0.53 0.49 0.45 0.40 0.39 0.46 0.53 0.56 0.58 0.59 0.61 0.63 0.62 0.58 0.55 0.50 0.47 0.47 0.43

GEFSNGP_prec_meanprecacc_186.txt.gz
Total_Precipitation_Accumulation
0.12 0.19 0.23 0.28 0.23 0.17 0.14 0.15 0.24 0.30 0.43 0.51 0.51 0.63 0.88 0.74 0.59 0.47 0.49 0.42 0.40 0.43 0.53 0.57 0.63 0.66 0.70 0.78 0.86 0.93 1.13 1.34 1.61 1.84 1.66 1.44 1.41 1.39 1.35 1.43 1.54 1.79 1.95 2.03
0.12 0.16 0.20 0.24 0.26 0.19 0.16 0.14 0.13 0.24 0.41 0.48 0.56 0.60 0.70 0.68 0.63 0.55 0.58 0.57 0.55 0.62 0.63 0.67 0.74 0.72 0.68 0.66 0.78 0.92 1.10 1.28 1.48 1.59 1.43 1.24 1.13 1.16 1.20 1.27 1.44 1.61 1.77 1.87
0.21 0.19 0.22 0.27 0.26 0.22 0.19 0.20 0.21 0.32 0.44 0.46 0.57 0.54 0.57 0.71 0.75 0.69 0.54 0.58 0.62 0.58 0.62 0.65 0.69 0.71 0.69 0.67 0.83 1.08 1.15 1.20 1.32 1.43 1.43 1.31 1.12 1.10 1.16 1.24 1.38 1.48 1.54 1.61
0.35 0.39 0.44 0.36 0.32 0.28 0.26 0.31 0.31 0.35 0.40 0.47 0.58 0.55 0.44 0.46 0.53 0.63 0.65 0.66 0.64 0.62 0.62 0.61 0.60 0.65 0.65 0.68 0.84 1.03 1.12 1.21 1.40 1.55 1.54 1.47 1.40 1.34 1.38 1.45 1.45 1.44 1.48 1.51
0.56 0.57 0.48 0.46 0.46 0.46 0.49 0.59 0.53 0.47 0.46 0.50 0.51 0.56 0.54 0.43 0.40 0.48 0.56 0.68 0.68 0.63 0.65 0.66 0.67 0.68 0.70 0.75 0.92 1.14 1.27 1.37 1.47 1.63 1.67 1.66 1.72 1.76 1.78 1.77 1.65 1.58 1.59 1.64
0.65 0.73 0.72 0.69 0.58 0.52 0.63 0.99 0.89 0.72 0.60 0.58 0.58 0.82 0.91 0.72 0.57 0.52 0.51 0.63 0.75 0.73 0.68 0.69 0.71 0.80 0.95 1.03 1.14 1.25 1.41 1.55 1.61 1.79 1.89 1.85 1.91 2.01 2.06 2.09 2.01 2.00 1.88 1.79
0.74 0.83 0.87 0.80 0.61 0.62 1.09 1.40 1.07 0.90 0.81 0.75 0.82 0.82 0.81 0.71 0.61 0.53 0.52 0.60 0.70 0.86 0.78 0.73 0.77 0.93 1.14 1.21 1.26 1.27 1.43 1.58 1.69 1.90 2.06 2.18 2.32 2.41 2.38 2.35 2.34 2.26 2.06 1.94
0.93 1.12 1.17 0.78 0.75 1.02 1.23 1.10 1.08 1.08 1.11 1.07 0.96 0.77 0.67 0.65 0.58 0.56 0.55 0.57 0.57 0.63 0.68 0.74 0.80 1.00 1.22 1.28 1.27 1.29 1.37 1.54 1.79 2.00 2.05 2.12 2.40 2.48 2.44 2.38 2.28 2.17 2.06 1.88
1.12 1.26 1.05 0.83 0.91 0.94 1.04 1.13 1.16 1.17 1.19 1.09 0.95 0.81 0.71 0.67 0.58 0.53 0.52 0.54 0.56 0.59 0.67 0.78 0.90 1.12 1.40 1.47 1.43 1.38 1.44 1.60 1.85 2.03 2.19 2.32 2.44 2.40 2.36 2.35 2.26 2.13 2.04 1.89
1.24 1.23 0.99 0.93 0.94 0.91 0.98 1.04 1.16 1.10 1.03 0.99 0.95 0.84 0.72 0.62 0.52 0.48 0.51 0.52 0.54 0.58 0.67 0.77 0.93 1.13 1.36 1.36 1.32 1.35 1.37 1.48 1.64 1.76 1.84 1.97 2.15 2.11 2.02 2.03 2.08 2.06 1.99 1.92
1.33 1.34 1.24 1.16 1.14 1.03 0.92 0.88 0.87 0.88 0.88 0.90 0.90 0.88 0.74 0.62 0.54 0.46 0.46 0.48 0.53 0.64 0.78 0.85 0.94 1.06 1.13 1.18 1.23 1.26 1.24 1.27 1.37 1.48 1.58 1.70 1.79 1.85 1.82 1.78 1.72 1.73 1.73 1.74
1.48 1.31 1.27 1.40 1.27 1.11 0.92 0.85 0.81 0.78 0.78 0.81 0.82 0.83 0.71 0.63 0.59 0.48 0.42 0.46 0.57 0.67 0.76 0.85 0.96 1.12 1.18 1.18 1.25 1.31 1.29 1.26 1.25 1.30 1.38 1.44 1.54 1.56 1.53 1.43 1.31 1.22 1.18 1.19
1.16 1.07 1.06 1.15 1.10 1.00 0.92 0.93 0.97 0.92 0.85 0.80 0.78 0.75 0.65 0.58 0.54 0.48 0.48 0.52 0.60 0.62 0.65 0.72 0.85 1.02 1.16 1.31 1.36 1.42 1.38 1.31 1.28 1.22 1.23 1.31 1.38 1.44 1.43 1.27 1.09 0.95 0.85 0.82
0.97 0.91 1.00 1.02 1.00 0.92 0.89 0.93 0.95 0.86 0.84 0.80 0.79 0.73 0.66 0.59 0.54 0.52 0.50 0.52 0.55 0.57 0.58 0.68 0.79 0.87 0.98 1.18 1.35 1.41 1.38 1.33 1.26 1.20 1.16 1.19 1.23 1.25 1.32 1.38 1.29 1.10 0.90 0.74
1.13 0.94 0.95 0.97 0.96 0.91 0.81 0.81 0.81 0.75 0.70 0.71 0.72 0.72 0.66 0.60 0.54 0.53 0.50 0.48 0.52 0.58 0.61 0.69 0.79 0.85 0.95 1.09 1.18 1.19 1.18 1.15 1.11 1.12 1.14 1.13 1.16 1.17 1.16 1.23 1.23 1.18 1.04 0.86
1.10 0.93 0.82 0.84 0.84 0.89 0.83 0.78 0.77 0.74 0.68 0.62 0.62 0.58 0.53 0.48 0.47 0.48 0.47 0.49 0.59 0.65 0.69 0.80 0.86 0.89 1.01 1.13 1.18 1.17 1.15 1.10 1.03 1.04 1.09 1.11 1.12 1.13 1.10 1.16 1.17 1.17 1.07 0.90
1.06 0.97 0.85 0.75 0.71 0.76 0.78 0.71 0.65 0.66 0.64 0.57 0.54 0.50 0.46 0.44 0.47 0.46 0.44 0.45 0.54 0.63 0.72 0.88 0.93 0.93 1.05 1.17 1.24 1.22 1.14 1.05 0.92 0.89 0.93 0.99 1.04 1.05 1.03 1.05 1.05 1.08 0.98 0.78
0.90 0.86 0.81 0.76 0.68 0.66 0.71 0.68 0.60 0.60 0.63 0.56 0.50 0.49 0.50 0.55 0.66 0.70 0.66 0.62 0.64 0.63 0.67 0.79 0.87 0.95 1.04 1.14 1.19 1.21 1.17 1.09 0.95 0.83 0.82 0.88 0.94 0.97 0.98 0.97 0.97 0.97 0.88 0.69
0.77 0.78 0.74 0.71 0.69 0.66 0.72 0.70 0.66 0.64 0.62 0.56 0.51 0.51 0.56 0.65 0.78 0.85 0.84 0.85 0.87 0.85 0.77 0.74 0.81 0.85 0.95 1.02 1.05 1.12 1.10 1.04 0.94 0.78 0.75 0.81 0.87 0.95 0.94 0.88 0.90 0.89 0.80 0.68
0.76 0.74 0.67 0.69 0.76 0.79 0.81 0.78 0.71 0.67 0.63 0.60 0.60 0.62 0.67 0.72 0.82 0.91 0.91 0.90 0.89 0.93 0.86 0.76 0.73 0.75 0.80 0.86 0.91 0.96 0.95 0.96 0.93 0.77 0.71 0.83 0.91 0.98 0.93 0.84 0.85 0.82 0.73 0.70
0.71 0.64 0.60 0.57 0.58 0.60 0.61 0.59 0.60 0.61 0.63 0.70 0.80 0.89 0.91 0.86 0.88 1.00 1.10 0.98 0.81 0.81 0.80 0.75 0.67 0.67 0.67 0.78 0.82 0.86 0.86 0.86 0.90 0.82 0.75 0.83 0.91 0.95 0.92 0.84 0.79 0.72 0.66 0.68
0.66 0.61 0.58 0.55 0.51 0.47 0.41 0.39 0.46 0.56 0.65 0.72 0.79 0.92 1.03 1.06 1.06 1.05 0.97 0.95 0.86 0.83 0.73 0.65 0.58 0.56 0.56 0.61 0.73 0.78 0.77 0.76 0.80 0.79 0.75 0.80 0.87 0.89 0.88 0.80 0.73 0.67 0.64 0.65
0.64 0.61 0.57 0.53 0.53 0.48 0.40 0.37 0.38 0.47 0.58 0.66 0.76 0.95 1.10 1.13 1.21 1.33 1.15 0.86 0.78 0.78 0.70 0.59 0.54 0.51 0.47 0.44 0.58 0.67 0.69 0.73 0.76 0.75 0.72 0.68 0.68 0.72 0.73 0.67 0.63 0.63 0.66 0.69
0.66 0.61 0.64 0.61 0.55 0.48 0.45 0.44 0.43 0.48 0.55 0.60 0.69 0.88 1.09 1.23 1.18 1.06 1.02 0.90 0.77 0.69 0.63 0.57 0.48 0.45 0.43 0.39 0.47 0.56 0.61 0.66 0.65 0.63 0.61 0.59 0.62 0.66 0.64 0.62 0.60 0.61 0.66 0.68
0.65 0.62 0.64 0.66 0.63 0.61 0.60 0.60 0.61 0.62 0.66 0.67 0.67 0.72 0.84 1.05 1.20 1.03 0.84 0.78 0.74 0.63 0.60 0.59 0.50 0.45 0.41 0.38 0.39 0.45 0.52 0.55 0.54 0.54 0.52 0.56 0.60 0.60 0.55 0.54 0.56 0.59 0.63 0.66
0.62 0.61 0.64 0.65 0.62 0.64 0.70 0.78 0.86 0.88 0.91 0.95 0.87 0.79 0.80 0.88 0.98 0.96 0.83 0.73 0.68 0.64 0.58 0.57 0.53 0.48 0.43 0.41 0.39 0.42 0.47 0.53 0.55 0.54 0.51 0.55 0.55 0.52 0.53 0.55 0.52 0.52 0.55 0.56
0.63 0.59 0.59 0.61 0.62 0.66 0.77 0.90 1.02 1.09 1.15 1.23 1.17 0.99 0.89 0.84 0.87 0.88 0.81 0.74 0.71 0.69 0.66 0.62 0.57 0.54 0.51 0.47 0.42 0.41 0.47 0.53 0.57 0.58 0.59 0.62 0.63 0.62 0.59 0.56 0.51 0.48 0.47 0.43

GEFSNGP_prec_meanprecacc_192.txt.gz
Total_Precipitation_Accumulation
0.12 0.19 0.23 0.28 0.23 0.17 0.14 0.15 0.24 0.31 0.44 0.54 0.54 0.66 0.91 0.78 0.66 0.52 0.54 0.47 0.44 0.48 0.57 0.60 0.67 0.70 0.74 0.83 0.95 1.02 1.18 1.40 1.67 1.91 1.73 1.48 1.45 1.42 1.38 1.46 1.59 1.84 2.00 2.10
0.12 0.16 0.20 0.24 0.26 0.19 0.16 0.14 0.13 0.25 0.43 0.52 0.60 0.64 0.74 0.72 0.74 0.65 0.64 0.62 0.59 0.65 0.66 0.70 0.77 0.75 0.72 0.70 0.82 0.96 1.13 1.31 1.52 1.64 1.46 1.26 1.15 1.18 1.22 1.30 1.48 1.65 1.81 1.93
0.21 0.19 0.22 0.27 0.26 0.22 0.19 0.20 0.21 0.33 0.45 0.50 0.64 0.61 0.63 0.76 0.82 0.78 0.59 0.62 0.65 0.61 0.66 0.68 0.71 0.74 0.72 0.69 0.86 1.11 1.17 1.22 1.36 1.48 1.46 1.33 1.13 1.11 1.17 1.26 1.42 1.53 1.58 1.64
0.35 0.39 0.44 0.36 0.32 0.28 0.26 0.31 0.31 0.35 0.41 0.51 0.68 0.64 0.52 0.54 0.60 0.68 0.70 0.69 0.66 0.65 0.65 0.63 0.63 0.68 0.68 0.72 0.87 1.05 1.15 1.24 1.43 1.60 1.59 1.51 1.42 1.35 1.40 1.48 1.49 1.48 1.52 1.55
0.56 0.57 0.48 0.46 0.46 0.46 0.49 0.60 0.53 0.48 0.47 0.52 0.54 0.62 0.67 0.58 0.50 0.56 0.60 0.71 0.71 0.66 0.68 0.69 0.70 0.72 0.74 0.79 0.96 1.17 1.30 1.41 1.51 1.66 1.71 1.70 1.76 1.79 1.82 1.81 1.69 1.62 1.63 1.68
0.65 0.74 0.73 0.69 0.59 0.52 0.64 1.00 0.90 0.73 0.61 0.59 0.60 0.87 1.01 0.84 0.67 0.64 0.59 0.68 0.79 0.77 0.72 0.72 0.74 0.84 0.99 1.07 1.18 1.29 1.45 1.60 1.66 1.83 1.93 1.89 1.96 2.05 2.11 2.14 2.05 2.03 1.91 1.81
0.74 0.83 0.87 0.80 0.61 0.62 1.10 1.42 1.09 0.91 0.83 0.77 0.84 0.86 0.88 0.78 0.69 0.69 0.64 0.66 0.75 0.89 0.81 0.76 0.81 0.97 1.18 1.26 1.38 1.44 1.53 1.64 1.74 1.95 2.12 2.24 2.37 2.46 2.41 2.37 2.36 2.28 2.09 1.96
0.94 1.13 1.18 0.79 0.76 1.03 1.26 1.12 1.10 1.11 1.15 1.13 0.99 0.79 0.70 0.70 0.63 0.65 0.63 0.62 0.63 0.67 0.74 0.79 0.86 1.06 1.26 1.32 1.35 1.49 1.60 1.70 1.89 2.06 2.11 2.18 2.45 2.53 2.49 2.42 2.32 2.20 2.08 1.90
1.13 1.28 1.07 0.85 0.93 0.97 1.07 1.16 1.20 1.20 1.21 1.12 0.98 0.83 0.74 0.71 0.62 0.58 0.56 0.59 0.62 0.65 0.73 0.84 0.97 1.18 1.45 1.51 1.47 1.46 1.59 1.75 1.96 2.12 2.27 2.39 2.50 2.45 2.40 2.39 2.29 2.15 2.06 1.90
1.27 1.26 1.02 0.97 1.00 0.96 1.02 1.07 1.18 1.12 1.05 1.02 0.97 0.86 0.75 0.65 0.55 0.52 0.56 0.58 0.62 0.66 0.74 0.86 1.04 1.20 1.44 1.42 1.36 1.40 1.43 1.56 1.71 1.82 1.89 2.01 2.19 2.14 2.05 2.06 2.10 2.06 2.00 1.92
1.38 1.39 1.29 1.22 1.21 1.09 0.98 0.92 0.89 0.90 0.90 0.93 0.93 0.91 0.76 0.64 0.56 0.49 0.51 0.54 0.58 0.70 0.85 0.94 1.05 1.15 1.21 1.24 1.28 1.31 1.28 1.32 1.42 1.51 1.61 1.73 1.81 1.88 1.84 1.80 1.73 1.74 1.74 1.74
1.55 1.37 1.35 1.49 1.33 1.19 1.01 0.92 0.85 0.80 0.82 0.85 0.86 0.86 0.74 0.67 0.62 0.51 0.47 0.51 0.61 0.71 0.81 0.90 1.03 1.20 1.27 1.26 1.32 1.37 1.34 1.30 1.29 1.33 1.40 1.47 1.56 1.57 1.54 1.43 1.32 1.23 1.18 1.19
1.24 1.17 1.16 1.23 1.16 1.08 1.00 0.99 1.01 0.95 0.88 0.83 0.83 0.79 0.69 0.64 0.60 0.53 0.52 0.56 0.65 0.66 0.71 0.79 0.91 1.09 1.25 1.38 1.42 1.46 1.42 1.36 1.32 1.26 1.26 1.32 1.38 1.44 1.43 1.28 1.09 0.95 0.86 0.82
1.12 1.06 1.14 1.14 1.09 0.99 0.96 0.99 1.02 0.92 0.88 0.84 0.83 0.77 0.70 0.64 0.59 0.56 0.54 0.56 0.60 0.63 0.65 0.75 0.86 0.94 1.06 1.26 1.41 1.46 1.43 1.36 1.29 1.23 1.18 1.20 1.23 1.25 1.32 1.38 1.29 1.10 0.90 0.75
1.30 1.14 1.14 1.13 1.11 1.01 0.90 0.91 0.91 0.83 0.75 0.75 0.76 0.75 0.69 0.64 0.58 0.57 0.55 0.53 0.57 0.64 0.66 0.75 0.85 0.91 1.02 1.15 1.23 1.24 1.24 1.20 1.14 1.14 1.15 1.14 1.16 1.17 1.16 1.23 1.24 1.18 1.04 0.87
1.26 1.12 1.01 1.01 1.00 1.00 0.91 0.87 0.85 0.82 0.74 0.67 0.67 0.62 0.58 0.53 0.51 0.52 0.51 0.52 0.62 0.68 0.72 0.83 0.90 0.94 1.06 1.17 1.22 1.21 1.19 1.13 1.05 1.05 1.10 1.12 1.13 1.13 1.10 1.16 1.17 1.17 1.07 0.90
1.24 1.15 0.99 0.87 0.82 0.84 0.84 0.77 0.70 0.70 0.69 0.63 0.59 0.56 0.51 0.49 0.51 0.51 0.47 0.49 0.58 0.67 0.76 0.92 0.98 0.96 1.08 1.22 1.30 1.27 1.18 1.07 0.94 0.90 0.94 1.00 1.05 1.05 1.03 1.05 1.05 1.08 0.98 0.79
1.02 0.98 0.92 0.84 0.74 0.72 0.76 0.72 0.64 0.64 0.67 0.60 0.55 0.57 0.58 0.61 0.70 0.74 0.70 0.65 0.68 0.67 0.70 0.82 0.90 0.97 1.07 1.18 1.23 1.24 1.20 1.11 0.98 0.85 0.82 0.89 0.94 0.97 0.98 0.97 0.97 0.97 0.88 0.69
0.87 0.93 0.88 0.80 0.76 0.70 0.75 0.74 0.70 0.69 0.67 0.61 0.56 0.57 0.63 0.72 0.83 0.90 0.89 0.88 0.90 0.87 0.79 0.76 0.83 0.88 0.98 1.05 1.08 1.13 1.11 1.05 0.95 0.79 0.75 0.81 0.87 0.95 0.95 0.89 0.90 0.90 0.81 0.69
0.88 0.93 0.85 0.78 0.82 0.83 0.84 0.82 0.76 0.73 0.68 0.65 0.66 0.69 0.73 0.78 0.88 0.96 0.95 0.93 0.92 0.95 0.88 0.78 0.75 0.77 0.83 0.88 0.92 0.97 0.96 0.97 0.94 0.77 0.71 0.83 0.92 0.98 0.94 0.85 0.85 0.82 0.73 0.70
0.83 0.83 0.77 0.66 0.64 0.65 0.66 0.66 0.68 0.69 0.73 0.78 0.88 0.97 1.00 0.94 0.94 1.06 1.14 1.02 0.84 0.85 0.83 0.78 0.70 0.69 0.70 0.80 0.84 0.87 0.87 0.86 0.90 0.82 0.76 0.83 0.91 0.95 0.92 0.85 0.79 0.72 0.66 0.69
0.75 0.74 0.71 0.65 0.58 0.54 0.48 0.48 0.55 0.64 0.73 0.82 0.89 1.02 1.13 1.17 1.16 1.13 1.03 1.00 0.90 0.86 0.76 0.68 0.61 0.59 0.58 0.63 0.74 0.79 0.78 0.77 0.81 0.79 0.76 0.80 0.88 0.90 0.88 0.80 0.74 0.67 0.64 0.66
0.71 0.69 0.66 0.61 0.61 0.56 0.49 0.47 0.47 0.54 0.64 0.73 0.84 1.05 1.18 1.20 1.28 1.40 1.21 0.90 0.80 0.81 0.72 0.61 0.56 0.53 0.48 0.46 0.59 0.68 0.69 0.74 0.76 0.76 0.73 0.68 0.69 0.72 0.73 0.67 0.63 0.63 0.66 0.69
0.72 0.66 0.69 0.69 0.63 0.55 0.53 0.51 0.51 0.55 0.60 0.65 0.74 0.93 1.15 1.28 1.23 1.11 1.06 0.93 0.79 0.71 0.66 0.60 0.50 0.47 0.45 0.41 0.48 0.57 0.63 0.68 0.66 0.64 0.62 0.59 0.63 0.67 0.65 0.62 0.60 0.62 0.66 0.69
0.71 0.68 0.70 0.75 0.72 0.69 0.67 0.65 0.67 0.67 0.69 0.70 0.70 0.75 0.87 1.09 1.24 1.07 0.87 0.80 0.75 0.65 0.63 0.62 0.53 0.47 0.43 0.40 0.41 0.48 0.54 0.58 0.57 0.56 0.54 0.57 0.61 0.60 0.56 0.54 0.56 0.59 0.64 0.67
0.69 0.68 0.70 0.72 0.73 0.75 0.76 0.82 0.91 0.91 0.94 0.99 0.90 0.82 0.83 0.90 1.00 0.99 0.85 0.75 0.69 0.65 0.60 0.61 0.58 0.52 0.48 0.46 0.44 0.46 0.51 0.57 0.59 0.57 0.53 0.57 0.56 0.53 0.53 0.55 0.53 0.53 0.56 0.57
0.69 0.65 0.66 0.70 0.72 0.74 0.83 0.95 1.07 1.13 1.18 1.26 1.20 1.02 0.92 0.87 0.89 0.90 0.83 0.76 0.73 0.70 0.67 0.63 0.59 0.57 0.55 0.52 0.46 0.45 0.51 0.58 0.61 0.61 0.61 0.63 0.64 0.63 0.59 0.57 0.52 0.48 0.48 0.44

GEFSNGP_prec_meanprecacc_198.txt.gz
Total_Precipitation_Accumulation
0.12 0.19 0.23 0.28 0.23 0.17 0.14 0.15 0.24 0.31 0.44 0.54 0.54 0.66 0.92 0.78 0.66 0.53 0.55 0.47 0.45 0.50 0.58 0.61 0.69 0.72 0.77 0.88 1.01 1.11 1.23 1.43 1.71 1.95 1.77 1.51 1.47 1.44 1.40 1.49 1.60 1.86 2.02 2.12
0.12 0.16 0.20 0.24 0.26 0.19 0.16 0.14 0.13 0.25 0.43 0.52 0.60 0.65 0.74 0.73 0.74 0.65 0.65 0.63 0.61 0.67 0.68 0.72 0.78 0.77 0.75 0.73 0.86 1.05 1.19 1.34 1.54 1.66 1.47 1.27 1.16 1.20 1.24 1.33 1.51 1.68 1.83 1.95
0.21 0.19 0.22 0.27 0.26 0.22 0.19 0.20 0.21 0.33 0.45 0.50 0.64 0.61 0.64 0.77 0.84 0.79 0.61 0.63 0.68 0.64 0.68 0.70 0.74 0.76 0.75 0.72 0.89 1.14 1.20 1.24 1.38 1.50 1.48 1.35 1.16 1.14 1.21 1.30 1.45 1.55 1.60 1.66
0.35 0.39 0.44 0.36 0.32 0.28 0.26 0.31 0.31 0.35 0.41 0.51 0.69 0.65 0.53 0.54 0.62 0.71 0.72 0.73 0.70 0.70 0.69 0.67 0.66 0.71 0.72 0.75 0.90 1.09 1.17 1.25 1.45 1.62 1.61 1.54 1.45 1.38 1.43 1.50 1.50 1.50 1.54 1.57
0.56 0.57 0.48 0.46 0.46 0.46 0.49 0.60 0.53 0.48 0.47 0.52 0.55 0.62 0.68 0.59 0.53 0.59 0.64 0.76 0.77 0.73 0.73 0.73 0.73 0.76 0.79 0.83 1.00 1.20 1.32 1.42 1.52 1.68 1.73 1.73 1.79 1.83 1.86 1.84 1.71 1.65 1.67 1.72
0.65 0.74 0.73 0.70 0.59 0.52 0.64 1.00 0.91 0.73 0.61 0.59 0.60 0.88 1.02 0.86 0.70 0.67 0.64 0.75 0.85 0.85 0.78 0.76 0.78 0.89 1.05 1.14 1.24 1.33 1.48 1.61 1.67 1.84 1.94 1.91 1.99 2.10 2.17 2.19 2.10 2.08 1.98 1.88
0.74 0.83 0.87 0.80 0.61 0.62 1.11 1.43 1.09 0.92 0.83 0.78 0.84 0.87 0.89 0.79 0.71 0.74 0.69 0.72 0.80 0.96 0.87 0.81 0.85 1.03 1.24 1.32 1.43 1.48 1.56 1.66 1.76 1.96 2.14 2.26 2.41 2.51 2.48 2.44 2.44 2.36 2.15 2.02
0.94 1.13 1.18 0.79 0.76 1.04 1.26 1.12 1.11 1.12 1.17 1.15 1.00 0.80 0.72 0.71 0.65 0.67 0.66 0.67 0.68 0.74 0.81 0.84 0.92 1.12 1.31 1.35 1.38 1.53 1.65 1.79 1.98 2.12 2.16 2.23 2.51 2.59 2.55 2.49 2.38 2.26 2.13 1.94
1.13 1.28 1.07 0.85 0.94 0.97 1.08 1.17 1.21 1.21 1.24 1.15 1.00 0.86 0.76 0.73 0.65 0.62 0.59 0.63 0.68 0.72 0.80 0.90 1.02 1.22 1.48 1.54 1.50 1.50 1.65 1.86 2.07 2.18 2.33 2.47 2.58 2.52 2.47 2.46 2.35 2.21 2.10 1.92
1.27 1.27 1.03 0.98 1.01 0.97 1.03 1.08 1.19 1.13 1.06 1.03 1.00 0.88 0.77 0.68 0.59 0.58 0.61 0.64 0.68 0.74 0.82 0.95 1.11 1.26 1.48 1.45 1.39 1.45 1.49 1.63 1.78 1.87 1.95 2.10 2.27 2.22 2.12 2.12 2.15 2.12 2.05 1.96
1.39 1.40 1.31 1.24 1.22 1.10 1.00 0.95 0.91 0.92 0.92 0.95 0.94 0.92 0.78 0.67 0.60 0.54 0.57 0.60 0.65 0.78 0.95 1.04 1.15 1.24 1.27 1.28 1.31 1.34 1.32 1.37 1.46 1.54 1.64 1.77 1.87 1.94 1.90 1.87 1.81 1.80 1.78 1.76
1.56 1.39 1.37 1.50 1.35 1.21 1.03 0.95 0.88 0.83 0.84 0.86 0.87 0.88 0.76 0.69 0.65 0.56 0.51 0.56 0.66 0.76 0.88 0.97 1.09 1.28 1.34 1.31 1.36 1.41 1.37 1.34 1.34 1.39 1.46 1.51 1.59 1.60 1.57 1.46 1.35 1.26 1.20 1.20
1.26 1.18 1.18 1.25 1.19 1.10 1.02 1.02 1.05 0.99 0.91 0.86 0.85 0.82 0.72 0.67 0.64 0.58 0.56 0.60 0.69 0.71 0.76 0.85 0.98 1.15 1.30 1.44 1.47 1.50 1.45 1.38 1.34 1.29 1.29 1.35 1.40 1.45 1.45 1.29 1.11 0.97 0.87 0.84
1.13 1.08 1.18 1.17 1.13 1.04 1.00 1.04 1.08 0.99 0.94 0.90 0.88 0.81 0.73 0.67 0.65 0.64 0.60 0.61 0.66 0.68 0.70 0.81 0.92 1.01 1.11 1.31 1.46 1.50 1.46 1.39 1.31 1.25 1.20 1.21 1.24 1.26 1.33 1.40 1.30 1.11 0.91 0.76
1.34 1.18 1.18 1.18 1.19 1.11 0.98 0.99 0.99 0.92 0.84 0.83 0.82 0.80 0.73 0.68 0.63 0.62 0.59 0.57 0.63 0.69 0.70 0.79 0.90 0.96 1.07 1.19 1.28 1.30 1.29 1.23 1.17 1.16 1.16 1.16 1.18 1.18 1.17 1.24 1.25 1.19 1.05 0.87
1.32 1.18 1.06 1.08 1.12 1.14 1.05 0.96 0.92 0.90 0.84 0.76 0.74 0.68 0.62 0.56 0.54 0.55 0.54 0.56 0.65 0.72 0.76 0.88 0.95 0.99 1.12 1.22 1.26 1.26 1.25 1.18 1.09 1.09 1.14 1.15 1.15 1.15 1.12 1.18 1.19 1.19 1.09 0.91
1.31 1.23 1.05 0.91 0.90 0.96 0.97 0.88 0.79 0.78 0.77 0.71 0.67 0.63 0.56 0.52 0.54 0.53 0.50 0.52 0.61 0.70 0.79 0.95 1.02 1.02 1.14 1.27 1.34 1.31 1.22 1.11 0.97 0.94 0.97 1.03 1.07 1.07 1.05 1.07 1.07 1.10 1.00 0.80
1.08 1.05 0.98 0.88 0.79 0.79 0.85 0.81 0.73 0.73 0.75 0.67 0.60 0.61 0.61 0.63 0.73 0.76 0.72 0.68 0.70 0.69 0.72 0.85 0.93 1.01 1.10 1.21 1.27 1.27 1.22 1.12 0.99 0.87 0.84 0.91 0.96 0.99 0.99 0.98 0.98 0.99 0.90 0.71
0.93 0.98 0.93 0.85 0.80 0.76 0.83 0.81 0.78 0.76 0.73 0.66 0.59 0.60 0.65 0.74 0.85 0.92 0.91 0.91 0.93 0.90 0.82 0.79 0.86 0.91 1.00 1.07 1.10 1.15 1.12 1.06 0.96 0.79 0.76 0.82 0.88 0.96 0.96 0.90 0.91 0.90 0.82 0.70
0.95 1.00 0.92 0.84 0.89 0.91 0.93 0.89 0.82 0.78 0.72 0.68 0.68 0.70 0.75 0.80 0.90 0.98 0.97 0.95 0.94 0.97 0.91 0.81 0.78 0.79 0.84 0.90 0.94 0.98 0.97 0.98 0.94 0.77 0.72 0.83 0.92 0.98 0.94 0.85 0.85 0.83 0.74 0.71
0.90 0.91 0.85 0.74 0.74 0.75 0.73 0.72 0.72 0.73 0.76 0.81 0.91 1.01 1.03 0.96 0.96 1.08 1.16 1.05 0.87 0.87 0.86 0.81 0.72 0.71 0.72 0.82 0.86 0.88 0.87 0.87 0.91 0.82 0.76 0.83 0.91 0.96 0.93 0.85 0.80 0.73 0.67 0.69
0.83 0.83 0.81 0.75 0.68 0.62 0.54 0.53 0.59 0.67 0.77 0.86 0.93 1.06 1.17 1.20 1.20 1.17 1.07 1.04 0.95 0.92 0.81 0.71 0.64 0.62 0.61 0.66 0.76 0.80 0.79 0.78 0.82 0.80 0.77 0.81 0.89 0.91 0.89 0.81 0.74 0.67 0.64 0.66
0.79 0.78 0.76 0.69 0.68 0.63 0.57 0.55 0.53 0.59 0.69 0.78 0.89 1.09 1.22 1.24 1.31 1.45 1.26 0.96 0.87 0.88 0.80 0.67 0.62 0.58 0.52 0.48 0.62 0.71 0.72 0.76 0.79 0.78 0.75 0.71 0.71 0.74 0.75 0.68 0.64 0.63 0.67 0.69
0.82 0.75 0.78 0.75 0.67 0.58 0.57 0.56 0.58 0.61 0.65 0.68 0.76 0.96 1.18 1.32 1.27 1.15 1.11 0.99 0.84 0.76 0.70 0.65 0.56 0.52 0.50 0.44 0.51 0.60 0.65 0.70 0.68 0.66 0.64 0.62 0.65 0.69 0.66 0.63 0.61 0.63 0.68 0.70
0.80 0.75 0.76 0.79 0.76 0.72 0.70 0.68 0.70 0.70 0.73 0.73 0.72 0.77 0.89 1.10 1.26 1.09 0.91 0.84 0.79 0.68 0.65 0.65 0.57 0.50 0.45 0.41 0.43 0.50 0.56 0.60 0.59 0.59 0.57 0.60 0.64 0.63 0.58 0.56 0.58 0.61 0.65 0.68
0.75 0.74 0.75 0.75 0.76 0.78 0.80 0.85 0.93 0.93 0.96 1.01 0.91 0.83 0.84 0.91 1.02 1.02 0.89 0.78 0.72 0.68 0.61 0.62 0.60 0.55 0.49 0.48 0.46 0.49 0.55 0.61 0.63 0.60 0.55 0.59 0.58 0.55 0.55 0.57 0.54 0.55 0.58 0.58
0.73 0.68 0.69 0.72 0.75 0.78 0.88 0.99 1.10 1.15 1.20 1.27 1.21 1.03 0.93 0.87 0.91 0.92 0.87 0.80 0.76 0.72 0.68 0.65 0.61 0.59 0.56 0.53 0.48 0.47 0.53 0.60 0.64 0.64 0.64 0.65 0.66 0.65 0.61 0.58 0.53 0.50 0.49 0.45

GEFSNGP_prec_meanprecacc_204.txt.gz
Total_Precipitation_Accumulation
0.12 0.19 0.23 0.28 0.23 0.17 0.14 0.15 0.24 0.31 0.44 0.54 0.54 0.66 0.92 0.78 0.67 0.53 0.55 0.48 0.46 0.50 0.59 0.62 0.69 0.72 0.80 0.94 1.08 1.19 1.31 1.49 1.74 1.98 1.79 1.54 1.49 1.46 1.42 1.50 1.62 1.87 2.05 2.15
0.12 0.16 0.20 0.24 0.26 0.19 0.16 0.14 0.13 0.25 0.43 0.52 0.60 0.65 0.74 0.73 0.74 0.66 0.65 0.64 0.61 0.68 0.70 0.74 0.80 0.79 0.77 0.75 0.89 1.09 1.23 1.39 1.57 1.68 1.51 1.31 1.20 1.22 1.26 1.34 1.52 1.70 1.86 1.98
0.21 0.19 0.22 0.27 0.26 0.22 0.19 0.20 0.21 0.33 0.45 0.50 0.64 0.61 0.64 0.77 0.84 0.80 0.61 0.64 0.68 0.67 0.73 0.74 0.77 0.79 0.76 0.73 0.91 1.16 1.23 1.27 1.40 1.52 1.51 1.38 1.18 1.16 1.22 1.31 1.47 1.58 1.63 1.70
0.35 0.39 0.44 0.36 0.32 0.28 0.27 0.31 0.31 0.35 0.41 0.51 0.69 0.65 0.53 0.54 0.62 0.71 0.73 0.73 0.72 0.72 0.73 0.70 0.68 0.73 0.73 0.76 0.92 1.11 1.19 1.27 1.47 1.64 1.63 1.55 1.46 1.39 1.44 1.52 1.52 1.52 1.57 1.61
0.56 0.57 0.48 0.46 0.46 0.46 0.49 0.60 0.53 0.48 0.47 0.52 0.55 0.62 0.68 0.59 0.53 0.60 0.65 0.77 0.78 0.74 0.74 0.75 0.75 0.77 0.79 0.84 1.01 1.22 1.33 1.43 1.53 1.68 1.74 1.74 1.80 1.84 1.88 1.86 1.74 1.68 1.71 1.77
0.65 0.74 0.73 0.70 0.59 0.52 0.64 1.01 0.91 0.73 0.61 0.59 0.60 0.88 1.02 0.86 0.70 0.68 0.64 0.75 0.86 0.86 0.78 0.77 0.80 0.91 1.06 1.15 1.25 1.34 1.49 1.63 1.68 1.86 1.96 1.93 2.01 2.11 2.18 2.21 2.14 2.12 2.04 1.94
0.74 0.83 0.87 0.80 0.61 0.62 1.11 1.43 1.09 0.92 0.83 0.78 0.85 0.87 0.89 0.79 0.71 0.74 0.69 0.72 0.81 0.97 0.88 0.82 0.86 1.04 1.25 1.34 1.45 1.51 1.60 1.70 1.80 2.00 2.17 2.29 2.43 2.52 2.49 2.46 2.48 2.42 2.21 2.08
0.94 1.13 1.18 0.79 0.76 1.04 1.26 1.12 1.11 1.12 1.17 1.15 1.01 0.80 0.72 0.71 0.65 0.67 0.66 0.68 0.69 0.75 0.82 0.85 0.93 1.14 1.34 1.38 1.41 1.57 1.69 1.83 2.02 2.14 2.19 2.27 2.56 2.65 2.62 2.55 2.44 2.31 2.19 2.00
1.13 1.28 1.07 0.86 0.94 0.97 1.08 1.17 1.21 1.22 1.24 1.15 1.01 0.86 0.76 0.73 0.65 0.62 0.60 0.65 0.70 0.73 0.82 0.92 1.04 1.24 1.52 1.57 1.53 1.54 1.69 1.90 2.10 2.22 2.37 2.51 2.63 2.57 2.51 2.50 2.39 2.25 2.13 1.96
1.27 1.27 1.03 0.99 1.02 0.97 1.03 1.08 1.19 1.13 1.07 1.04 1.00 0.88 0.77 0.68 0.59 0.58 0.62 0.66 0.69 0.74 0.83 0.96 1.13 1.28 1.52 1.49 1.45 1.49 1.53 1.68 1.83 1.92 1.99 2.12 2.30 2.26 2.16 2.16 2.19 2.15 2.08 2.00
1.40 1.41 1.31 1.24 1.23 1.11 1.00 0.95 0.92 0.92 0.92 0.95 0.95 0.93 0.78 0.67 0.60 0.55 0.57 0.61 0.66 0.79 0.96 1.06 1.17 1.27 1.30 1.30 1.34 1.37 1.35 1.41 1.49 1.57 1.66 1.78 1.88 1.96 1.92 1.90 1.85 1.86 1.83 1.82
1.57 1.40 1.37 1.51 1.36 1.22 1.04 0.95 0.88 0.84 0.84 0.87 0.88 0.89 0.77 0.69 0.66 0.56 0.52 0.57 0.67 0.78 0.90 1.00 1.15 1.33 1.38 1.34 1.39 1.43 1.39 1.36 1.36 1.41 1.48 1.52 1.60 1.61 1.58 1.47 1.36 1.27 1.21 1.21
1.26 1.18 1.18 1.26 1.20 1.11 1.03 1.03 1.06 1.00 0.92 0.86 0.86 0.83 0.73 0.68 0.65 0.59 0.58 0.62 0.71 0.72 0.78 0.88 1.02 1.21 1.35 1.48 1.50 1.53 1.48 1.40 1.37 1.31 1.30 1.36 1.41 1.46 1.46 1.30 1.11 0.97 0.88 0.84
1.14 1.08 1.18 1.18 1.14 1.05 1.01 1.05 1.09 1.00 0.96 0.92 0.90 0.82 0.75 0.70 0.67 0.67 0.62 0.63 0.68 0.70 0.71 0.83 0.95 1.04 1.15 1.35 1.51 1.55 1.51 1.44 1.35 1.28 1.22 1.23 1.25 1.27 1.34 1.40 1.30 1.11 0.91 0.77
1.36 1.19 1.18 1.19 1.20 1.12 0.99 1.00 1.00 0.93 0.86 0.85 0.83 0.81 0.75 0.71 0.65 0.65 0.61 0.59 0.64 0.70 0.72 0.81 0.92 0.98 1.10 1.23 1.32 1.34 1.33 1.28 1.20 1.18 1.18 1.17 1.18 1.18 1.17 1.25 1.25 1.20 1.05 0.88
1.34 1.20 1.07 1.09 1.14 1.15 1.06 0.97 0.94 0.92 0.86 0.78 0.76 0.70 0.65 0.60 0.57 0.57 0.56 0.57 0.66 0.73 0.77 0.89 0.97 1.01 1.14 1.25 1.30 1.30 1.29 1.24 1.15 1.13 1.17 1.19 1.17 1.17 1.14 1.19 1.20 1.20 1.09 0.91
1.33 1.25 1.07 0.93 0.91 0.97 0.99 0.89 0.81 0.79 0.79 0.73 0.69 0.67 0.61 0.57 0.58 0.56 0.52 0.53 0.61 0.71 0.80 0.96 1.03 1.05 1.16 1.29 1.38 1.35 1.28 1.20 1.07 1.03 1.05 1.09 1.11 1.10 1.07 1.09 1.08 1.10 1.00 0.81
1.09 1.07 1.00 0.90 0.81 0.80 0.86 0.82 0.76 0.75 0.77 0.69 0.63 0.66 0.67 0.69 0.78 0.80 0.75 0.69 0.71 0.70 0.73 0.85 0.94 1.02 1.11 1.22 1.29 1.31 1.29 1.21 1.07 0.93 0.89 0.94 0.98 1.00 1.00 1.00 0.99 0.99 0.91 0.72
0.94 0.99 0.95 0.87 0.82 0.78 0.85 0.83 0.80 0.79 0.75 0.68 0.62 0.62 0.68 0.78 0.89 0.95 0.93 0.92 0.95 0.91 0.83 0.80 0.87 0.91 1.01 1.08 1.12 1.18 1.16 1.09 0.98 0.82 0.78 0.84 0.90 0.97 0.97 0.91 0.91 0.91 0.82 0.70
0.97 1.02 0.95 0.87 0.92 0.93 0.95 0.91 0.85 0.81 0.74 0.69 0.70 0.73 0.77 0.83 0.93 1.00 0.99 0.97 0.96 0.99 0.92 0.82 0.79 0.80 0.85 0.91 0.95 0.99 0.99 0.99 0.96 0.79 0.73 0.85 0.93 0.99 0.95 0.86 0.86 0.83 0.74 0.72
0.93 0.94 0.89 0.78 0.77 0.78 0.76 0.75 0.75 0.75 0.78 0.82 0.93 1.04 1.07 1.00 1.00 1.11 1.19 1.07 0.89 0.89 0.87 0.82 0.73 0.73 0.74 0.84 0.87 0.90 0.89 0.89 0.92 0.83 0.77 0.85 0.93 0.96 0.94 0.86 0.81 0.74 0.68 0.70
0.86 0.87 0.86 0.79 0.72 0.65 0.58 0.57 0.63 0.70 0.79 0.88 0.96 1.09 1.20 1.23 1.24 1.20 1.10 1.07 0.98 0.95 0.83 0.73 0.66 0.63 0.63 0.68 0.77 0.82 0.81 0.80 0.83 0.82 0.79 0.85 0.93 0.94 0.92 0.84 0.77 0.69 0.66 0.67
0.82 0.82 0.81 0.74 0.73 0.68 0.61 0.59 0.58 0.62 0.71 0.80 0.92 1.13 1.26 1.28 1.35 1.48 1.30 0.99 0.90 0.92 0.83 0.71 0.65 0.61 0.55 0.50 0.63 0.73 0.74 0.79 0.81 0.81 0.78 0.76 0.76 0.79 0.78 0.71 0.65 0.65 0.68 0.70
0.85 0.80 0.84 0.81 0.74 0.64 0.62 0.62 0.63 0.66 0.69 0.71 0.79 0.99 1.21 1.35 1.29 1.18 1.15 1.04 0.89 0.80 0.74 0.70 0.60 0.56 0.53 0.48 0.55 0.63 0.68 0.72 0.70 0.69 0.67 0.65 0.68 0.71 0.68 0.65 0.63 0.64 0.69 0.71
0.85 0.80 0.80 0.84 0.82 0.78 0.74 0.73 0.74 0.74 0.77 0.77 0.75 0.79 0.91 1.12 1.28 1.12 0.93 0.87 0.82 0.71 0.68 0.67 0.59 0.53 0.47 0.44 0.46 0.53 0.60 0.63 0.62 0.61 0.60 0.63 0.67 0.66 0.60 0.58 0.59 0.62 0.66 0.69
0.83 0.81 0.81 0.81 0.82 0.83 0.84 0.89 0.97 0.96 0.98 1.03 0.93 0.85 0.85 0.93 1.03 1.03 0.90 0.79 0.73 0.69 0.62 0.63 0.61 0.56 0.51 0.50 0.48 0.51 0.57 0.63 0.65 0.62 0.58 0.62 0.61 0.59 0.59 0.60 0.57 0.57 0.60 0.60
0.82 0.76 0.76 0.79 0.82 0.83 0.91 1.01 1.13 1.18 1.23 1.30 1.23 1.04 0.93 0.88 0.92 0.93 0.87 0.81 0.77 0.72 0.69 0.66 0.62 0.60 0.57 0.53 0.49 0.48 0.54 0.62 0.65 0.66 0.66 0.67 0.69 0.68 0.64 0.61 0.56 0.52 0.52 0.48

GEFSNGP_prec_meanprecacc_210.txt.gz
Total_Precipitation_Accumulation
0.12 0.19 0.23 0.28 0.23 0.17 0.14 0.15 0.24 0.31 0.47 0.58 0.57 0.67 0.92 0.79 0.67 0.54 0.55 0.48 0.46 0.51 0.62 0.71 0.75 0.74 0.83 0.97 1.10 1.20 1.33 1.51 1.76 2.00 1.83 1.57 1.52 1.50 1.47 1.56 1.68 1.95 2.11 2.20
0.12 0.16 0.20 0.24 0.26 0.19 0.16 0.14 0.13 0.25 0.45 0.53 0.61 0.65 0.74 0.73 0.75 0.68 0.66 0.64 0.62 0.69 0.72 0.77 0.82 0.80 0.77 0.76 0.89 1.09 1.24 1.40 1.58 1.70 1.53 1.34 1.23 1.25 1.30 1.40 1.58 1.77 1.92 2.04
0.21 0.19 0.22 0.27 0.26 0.22 0.19 0.20 0.21 0.33 0.46 0.51 0.64 0.62 0.64 0.77 0.84 0.80 0.62 0.64 0.69 0.69 0.75 0.77 0.78 0.79 0.76 0.74 0.91 1.17 1.23 1.28 1.41 1.53 1.53 1.41 1.22 1.20 1.26 1.35 1.52 1.63 1.68 1.75
0.35 0.39 0.44 0.36 0.32 0.29 0.27 0.31 0.31 0.35 0.42 0.52 0.69 0.66 0.53 0.54 0.62 0.71 0.74 0.75 0.74 0.74 0.76 0.72 0.69 0.73 0.73 0.77 0.92 1.11 1.19 1.28 1.48 1.66 1.66 1.59 1.50 1.43 1.48 1.56 1.57 1.56 1.61 1.66
0.56 0.57 0.48 0.47 0.47 0.47 0.49 0.60 0.53 0.48 0.47 0.52 0.55 0.62 0.68 0.59 0.53 0.60 0.67 0.81 0.82 0.76 0.77 0.77 0.76 0.79 0.84 0.89 1.02 1.22 1.34 1.44 1.55 1.71 1.77 1.78 1.84 1.87 1.91 1.90 1.78 1.71 1.74 1.81
0.65 0.74 0.73 0.70 0.60 0.53 0.64 1.01 0.91 0.73 0.61 0.59 0.60 0.88 1.03 0.86 0.70 0.68 0.66 0.79 0.93 0.92 0.82 0.82 0.83 0.93 1.10 1.18 1.26 1.35 1.51 1.66 1.71 1.88 1.99 1.96 2.05 2.15 2.22 2.25 2.17 2.15 2.07 1.96
0.74 0.83 0.88 0.81 0.61 0.62 1.11 1.44 1.10 0.92 0.83 0.78 0.85 0.88 0.90 0.80 0.71 0.74 0.70 0.75 0.87 1.05 0.92 0.87 0.89 1.07 1.28 1.36 1.47 1.52 1.61 1.73 1.82 2.02 2.20 2.32 2.47 2.56 2.53 2.50 2.53 2.48 2.26 2.11
0.94 1.13 1.19 0.79 0.76 1.04 1.27 1.13 1.11 1.12 1.17 1.15 1.01 0.81 0.72 0.72 0.66 0.68 0.67 0.69 0.71 0.78 0.85 0.87 0.94 1.16 1.35 1.40 1.43 1.58 1.71 1.85 2.03 2.16 2.21 2.30 2.60 2.68 2.65 2.61 2.52 2.38 2.23 2.03
1.14 1.29 1.08 0.86 0.94 0.97 1.08 1.17 1.21 1.22 1.24 1.16 1.01 0.86 0.76 0.74 0.67 0.63 0.61 0.65 0.71 0.74 0.83 0.93 1.05 1.26 1.54 1.59 1.55 1.56 1.72 1.92 2.12 2.24 2.40 2.56 2.67 2.60 2.54 2.53 2.43 2.29 2.16 1.97
1.28 1.27 1.03 0.99 1.02 0.98 1.03 1.08 1.19 1.13 1.07 1.05 1.01 0.89 0.78 0.68 0.60 0.59 0.63 0.66 0.70 0.75 0.85 0.98 1.15 1.32 1.55 1.51 1.47 1.53 1.56 1.71 1.87 1.95 2.02 2.16 2.34 2.29 2.19 2.18 2.22 2.18 2.10 2.02
1.42 1.43 1.31 1.25 1.25 1.13 1.01 0.95 0.92 0.92 0.92 0.96 0.96 0.95 0.79 0.68 0.61 0.55 0.58 0.61 0.66 0.80 0.97 1.07 1.19 1.29 1.33 1.33 1.37 1.39 1.38 1.44 1.53 1.59 1.68 1.80 1.90 1.98 1.95 1.93 1.88 1.88 1.86 1.84
1.63 1.47 1.41 1.54 1.39 1.23 1.04 0.95 0.89 0.84 0.84 0.87 0.89 0.93 0.78 0.70 0.66 0.57 0.53 0.57 0.68 0.79 0.91 1.02 1.17 1.36 1.41 1.38 1.42 1.46 1.42 1.39 1.39 1.44 1.50 1.54 1.62 1.63 1.60 1.48 1.37 1.28 1.22 1.22
1.31 1.25 1.25 1.28 1.22 1.12 1.04 1.04 1.06 1.00 0.93 0.87 0.87 0.84 0.75 0.68 0.65 0.60 0.58 0.63 0.72 0.74 0.79 0.89 1.04 1.23 1.38 1.52 1.55 1.58 1.51 1.43 1.39 1.33 1.33 1.38 1.42 1.48 1.48 1.32 1.13 0.98 0.89 0.84
1.20 1.12 1.22 1.20 1.15 1.06 1.01 1.05 1.09 1.01 0.96 0.93 0.91 0.83 0.76 0.70 0.68 0.68 0.63 0.64 0.70 0.72 0.73 0.84 0.96 1.05 1.17 1.41 1.58 1.63 1.58 1.49 1.38 1.31 1.25 1.26 1.28 1.29 1.36 1.42 1.32 1.13 0.92 0.77
1.39 1.22 1.21 1.21 1.21 1.13 0.99 1.00 1.01 0.94 0.88 0.86 0.85 0.83 0.77 0.72 0.67 0.66 0.63 0.61 0.67 0.73 0.74 0.84 0.93 1.00 1.12 1.27 1.38 1.43 1.40 1.33 1.25 1.21 1.21 1.21 1.22 1.21 1.20 1.27 1.27 1.22 1.07 0.89
1.36 1.22 1.09 1.10 1.14 1.16 1.06 0.98 0.95 0.94 0.88 0.80 0.78 0.72 0.67 0.61 0.59 0.60 0.58 0.59 0.69 0.75 0.79 0.91 0.98 1.02 1.15 1.27 1.34 1.35 1.35 1.30 1.19 1.16 1.20 1.21 1.20 1.20 1.18 1.24 1.24 1.24 1.12 0.94
1.35 1.27 1.09 0.95 0.93 0.99 1.00 0.90 0.82 0.82 0.82 0.76 0.72 0.68 0.62 0.59 0.59 0.57 0.54 0.55 0.64 0.74 0.82 0.97 1.05 1.06 1.17 1.31 1.40 1.37 1.31 1.23 1.10 1.06 1.08 1.13 1.18 1.17 1.14 1.15 1.15 1.18 1.06 0.84
1.11 1.09 1.02 0.92 0.82 0.81 0.88 0.83 0.77 0.79 0.81 0.72 0.65 0.69 0.69 0.71 0.80 0.82 0.76 0.71 0.74 0.73 0.76 0.88 0.96 1.04 1.14 1.24 1.31 1.34 1.31 1.24 1.10 0.96 0.93 0.99 1.05 1.07 1.07 1.06 1.05 1.06 0.97 0.76
0.95 1.00 0.96 0.88 0.84 0.79 0.86 0.83 0.81 0.82 0.79 0.70 0.64 0.67 0.72 0.81 0.92 0.97 0.95 0.96 0.98 0.95 0.87 0.84 0.91 0.94 1.04 1.11 1.14 1.21 1.19 1.11 1.01 0.85 0.82 0.88 0.94 1.01 1.01 0.95 0.95 0.94 0.85 0.73
0.99 1.04 0.96 0.89 0.93 0.94 0.96 0.93 0.88 0.88 0.81 0.72 0.73 0.76 0.81 0.86 0.97 1.04 1.03 1.01 1.00 1.04 0.97 0.86 0.82 0.83 0.88 0.94 0.98 1.02 1.01 1.01 0.97 0.80 0.75 0.87 0.97 1.03 0.99 0.89 0.88 0.85 0.76 0.74
0.95 0.97 0.92 0.82 0.80 0.81 0.79 0.77 0.78 0.82 0.87 0.87 0.96 1.06 1.09 1.02 1.03 1.15 1.24 1.13 0.95 0.95 0.92 0.87 0.77 0.77 0.78 0.88 0.92 0.93 0.92 0.91 0.94 0.85 0.78 0.86 0.94 0.99 0.96 0.88 0.83 0.76 0.71 0.73
0.88 0.90 0.90 0.83 0.76 0.71 0.64 0.62 0.68 0.76 0.85 0.94 1.01 1.12 1.23 1.26 1.26 1.23 1.15 1.13 1.03 1.00 0.87 0.77 0.69 0.67 0.67 0.72 0.81 0.86 0.85 0.83 0.85 0.84 0.81 0.87 0.95 0.97 0.96 0.89 0.82 0.75 0.70 0.71
0.84 0.86 0.85 0.79 0.78 0.73 0.68 0.66 0.64 0.69 0.78 0.86 0.97 1.17 1.30 1.31 1.38 1.52 1.34 1.04 0.95 0.97 0.87 0.75 0.69 0.66 0.59 0.54 0.66 0.76 0.79 0.82 0.83 0.82 0.80 0.78 0.78 0.82 0.82 0.75 0.70 0.69 0.72 0.73
0.88 0.82 0.87 0.85 0.79 0.70 0.69 0.71 0.73 0.73 0.75 0.77 0.84 1.03 1.25 1.39 1.34 1.22 1.20 1.09 0.93 0.83 0.78 0.75 0.66 0.62 0.60 0.54 0.61 0.69 0.74 0.77 0.74 0.72 0.70 0.68 0.70 0.74 0.72 0.69 0.66 0.67 0.71 0.73
0.88 0.84 0.84 0.88 0.87 0.83 0.81 0.81 0.83 0.81 0.83 0.83 0.80 0.85 0.96 1.17 1.33 1.16 0.96 0.90 0.85 0.74 0.71 0.70 0.62 0.56 0.50 0.47 0.49 0.57 0.63 0.66 0.64 0.63 0.61 0.64 0.68 0.68 0.62 0.60 0.61 0.64 0.67 0.70
0.88 0.85 0.85 0.86 0.87 0.89 0.89 0.95 1.03 1.03 1.05 1.09 1.00 0.91 0.91 0.98 1.08 1.09 0.96 0.84 0.76 0.71 0.65 0.66 0.64 0.59 0.54 0.52 0.50 0.53 0.58 0.65 0.67 0.64 0.60 0.64 0.63 0.60 0.60 0.61 0.58 0.58 0.61 0.62
0.90 0.84 0.85 0.89 0.89 0.88 0.97 1.07 1.17 1.23 1.28 1.35 1.29 1.10 0.99 0.94 0.98 0.99 0.93 0.86 0.81 0.75 0.71 0.68 0.64 0.62 0.59 0.55 0.49 0.49 0.55 0.62 0.66 0.67 0.67 0.69 0.71 0.70 0.65 0.62 0.57 0.53 0.53 0.49

GEFSNGP_prec_meanprecacc_216.txt.gz
Total_Precipitation_Accumulation
0.12 0.19 0.23 0.28 0.24 0.17 0.14 0.15 0.24 0.32 0.47 0.59 0.58 0.68 0.95 0.82 0.71 0.64 0.62 0.53 0.50 0.57 0.68 0.75 0.78 0.76 0.85 1.01 1.15 1.28 1.39 1.53 1.77 2.02 1.86 1.61 1.55 1.52 1.49 1.58 1.72 2.00 2.14 2.21
0.12 0.16 0.20 0.24 0.26 0.19 0.16 0.16 0.15 0.26 0.45 0.55 0.63 0.66 0.76 0.76 0.78 0.77 0.71 0.68 0.66 0.78 0.81 0.83 0.87 0.83 0.82 0.84 0.95 1.14 1.29 1.42 1.60 1.72 1.56 1.38 1.27 1.30 1.33 1.44 1.62 1.80 1.94 2.06
0.21 0.19 0.22 0.28 0.26 0.23 0.20 0.26 0.26 0.34 0.46 0.52 0.71 0.66 0.67 0.80 0.86 0.82 0.68 0.73 0.74 0.78 0.89 0.84 0.82 0.83 0.82 0.84 1.00 1.21 1.26 1.31 1.44 1.56 1.55 1.44 1.27 1.26 1.32 1.40 1.56 1.67 1.70 1.78
0.35 0.39 0.45 0.36 0.33 0.29 0.28 0.33 0.33 0.36 0.43 0.53 0.71 0.69 0.55 0.56 0.63 0.73 0.77 0.85 0.82 0.80 0.84 0.79 0.75 0.82 0.82 0.82 1.02 1.21 1.26 1.35 1.53 1.69 1.70 1.63 1.55 1.47 1.52 1.58 1.59 1.58 1.63 1.68
0.56 0.57 0.48 0.47 0.47 0.48 0.50 0.61 0.54 0.48 0.48 0.53 0.55 0.63 0.70 0.60 0.54 0.62 0.69 0.88 0.91 0.85 0.91 0.94 0.97 0.99 0.99 0.98 1.15 1.37 1.47 1.51 1.58 1.74 1.80 1.82 1.87 1.90 1.93 1.92 1.79 1.72 1.76 1.82
0.65 0.74 0.73 0.71 0.60 0.54 0.65 1.02 0.92 0.74 0.62 0.60 0.61 0.91 1.06 0.88 0.72 0.69 0.68 0.82 0.99 0.98 0.87 0.92 0.98 1.04 1.18 1.24 1.31 1.40 1.55 1.69 1.74 1.90 2.01 1.99 2.08 2.18 2.24 2.27 2.19 2.17 2.09 1.98
0.75 0.84 0.88 0.81 0.61 0.62 1.12 1.45 1.11 0.93 0.84 0.78 0.86 0.89 0.97 0.87 0.77 0.77 0.71 0.76 0.89 1.08 0.94 0.91 1.01 1.16 1.35 1.40 1.52 1.56 1.64 1.74 1.83 2.04 2.21 2.35 2.49 2.59 2.56 2.53 2.55 2.50 2.28 2.13
0.94 1.14 1.20 0.80 0.77 1.04 1.28 1.13 1.12 1.13 1.18 1.16 1.02 0.82 0.81 0.85 0.76 0.74 0.72 0.73 0.73 0.80 0.87 0.90 1.01 1.28 1.45 1.45 1.47 1.61 1.73 1.86 2.04 2.17 2.23 2.32 2.62 2.70 2.68 2.64 2.54 2.39 2.25 2.04
1.14 1.29 1.09 0.86 0.95 0.98 1.09 1.18 1.22 1.22 1.25 1.17 1.01 0.89 0.88 0.88 0.77 0.71 0.67 0.70 0.74 0.76 0.86 0.98 1.12 1.35 1.61 1.64 1.59 1.59 1.73 1.93 2.12 2.25 2.42 2.58 2.69 2.64 2.57 2.54 2.45 2.31 2.18 1.99
1.29 1.28 1.04 1.00 1.03 1.00 1.05 1.10 1.20 1.14 1.08 1.07 1.03 0.91 0.88 0.83 0.70 0.65 0.67 0.69 0.74 0.79 0.88 1.03 1.21 1.37 1.61 1.54 1.49 1.55 1.58 1.73 1.89 1.96 2.03 2.18 2.36 2.31 2.20 2.18 2.23 2.20 2.14 2.04
1.44 1.44 1.33 1.27 1.28 1.17 1.03 0.97 0.93 0.94 0.94 0.99 1.03 0.98 0.82 0.76 0.70 0.61 0.62 0.64 0.69 0.84 1.03 1.13 1.25 1.34 1.37 1.36 1.39 1.41 1.40 1.47 1.55 1.60 1.69 1.81 1.91 1.99 1.95 1.93 1.89 1.89 1.87 1.85
1.67 1.51 1.44 1.58 1.46 1.33 1.12 1.00 0.92 0.87 0.87 0.91 0.95 0.99 0.83 0.74 0.71 0.63 0.57 0.60 0.71 0.83 0.98 1.13 1.34 1.50 1.52 1.45 1.48 1.50 1.44 1.41 1.40 1.45 1.51 1.55 1.63 1.64 1.62 1.50 1.39 1.29 1.23 1.23
1.38 1.32 1.32 1.36 1.30 1.20 1.13 1.13 1.15 1.08 0.98 0.91 0.91 0.88 0.80 0.74 0.71 0.65 0.64 0.68 0.75 0.77 0.84 0.98 1.15 1.31 1.45 1.59 1.64 1.64 1.55 1.46 1.40 1.34 1.34 1.39 1.44 1.50 1.50 1.34 1.15 1.00 0.91 0.87
1.34 1.28 1.35 1.31 1.24 1.13 1.09 1.14 1.20 1.10 1.05 0.99 0.98 0.89 0.80 0.75 0.73 0.73 0.69 0.73 0.78 0.78 0.79 0.90 1.02 1.10 1.21 1.45 1.64 1.68 1.62 1.53 1.42 1.32 1.27 1.28 1.31 1.32 1.38 1.44 1.34 1.16 0.95 0.80
1.59 1.45 1.37 1.36 1.34 1.24 1.08 1.07 1.10 1.02 0.94 0.94 0.94 0.92 0.84 0.78 0.72 0.72 0.69 0.68 0.75 0.80 0.82 0.90 1.00 1.07 1.20 1.34 1.43 1.47 1.45 1.38 1.29 1.24 1.24 1.23 1.25 1.24 1.22 1.28 1.29 1.24 1.09 0.92
1.59 1.45 1.27 1.25 1.30 1.30 1.19 1.09 1.05 1.00 0.92 0.85 0.84 0.79 0.75 0.68 0.65 0.66 0.66 0.66 0.76 0.81 0.84 0.96 1.05 1.07 1.21 1.38 1.42 1.42 1.40 1.34 1.23 1.19 1.23 1.24 1.21 1.21 1.19 1.25 1.26 1.26 1.15 0.97
1.49 1.46 1.29 1.10 1.09 1.14 1.10 1.00 0.90 0.87 0.85 0.80 0.77 0.75 0.68 0.65 0.65 0.62 0.58 0.58 0.68 0.77 0.86 1.01 1.09 1.10 1.20 1.36 1.46 1.43 1.35 1.27 1.13 1.09 1.10 1.16 1.20 1.18 1.15 1.16 1.17 1.21 1.12 0.91
1.19 1.22 1.18 1.06 0.94 0.93 0.97 0.91 0.83 0.83 0.85 0.76 0.71 0.75 0.75 0.77 0.85 0.87 0.80 0.74 0.77 0.77 0.79 0.91 1.00 1.08 1.17 1.28 1.35 1.38 1.35 1.27 1.13 0.98 0.95 1.01 1.06 1.08 1.08 1.07 1.07 1.09 1.02 0.81
1.03 1.12 1.11 1.03 0.96 0.88 0.94 0.91 0.87 0.86 0.82 0.74 0.68 0.70 0.76 0.87 0.99 1.03 1.00 1.00 1.02 0.99 0.90 0.87 0.95 0.98 1.08 1.16 1.19 1.25 1.22 1.14 1.03 0.87 0.84 0.90 0.97 1.04 1.03 0.97 0.96 0.95 0.86 0.74
1.08 1.13 1.08 1.00 1.02 1.03 1.03 0.98 0.92 0.92 0.84 0.76 0.78 0.80 0.85 0.91 1.03 1.10 1.09 1.05 1.04 1.07 1.00 0.91 0.87 0.88 0.92 0.98 1.02 1.05 1.05 1.05 1.01 0.84 0.79 0.90 0.99 1.06 1.02 0.92 0.90 0.87 0.78 0.77
1.02 1.03 0.98 0.89 0.87 0.86 0.84 0.82 0.82 0.87 0.91 0.91 1.01 1.11 1.13 1.05 1.05 1.18 1.27 1.15 0.97 0.97 0.96 0.92 0.82 0.82 0.84 0.93 0.97 0.98 0.97 0.97 1.01 0.90 0.82 0.89 0.98 1.02 0.99 0.91 0.86 0.79 0.75 0.78
0.91 0.93 0.93 0.89 0.84 0.77 0.69 0.67 0.73 0.81 0.90 0.98 1.05 1.17 1.26 1.28 1.28 1.25 1.17 1.14 1.04 1.02 0.91 0.81 0.74 0.71 0.72 0.78 0.87 0.92 0.92 0.91 0.95 0.93 0.88 0.92 1.00 1.01 1.00 0.92 0.86 0.80 0.76 0.76
0.87 0.88 0.87 0.83 0.89 0.84 0.76 0.73 0.70 0.75 0.82 0.90 1.01 1.20 1.32 1.32 1.39 1.53 1.35 1.05 0.96 0.99 0.90 0.77 0.71 0.68 0.62 0.58 0.71 0.81 0.84 0.89 0.90 0.88 0.85 0.83 0.83 0.86 0.85 0.78 0.74 0.73 0.75 0.76
0.92 0.86 0.90 0.88 0.85 0.78 0.76 0.76 0.77 0.81 0.79 0.80 0.88 1.08 1.29 1.41 1.36 1.24 1.21 1.10 0.94 0.85 0.80 0.78 0.69 0.65 0.63 0.57 0.63 0.72 0.77 0.80 0.77 0.75 0.74 0.71 0.74 0.77 0.74 0.71 0.69 0.70 0.74 0.75
0.91 0.87 0.86 0.90 0.89 0.86 0.84 0.84 0.89 0.90 0.88 0.88 0.86 0.92 1.02 1.22 1.35 1.18 0.98 0.91 0.87 0.76 0.72 0.72 0.65 0.60 0.55 0.51 0.53 0.60 0.66 0.69 0.67 0.65 0.63 0.67 0.70 0.70 0.64 0.62 0.63 0.66 0.69 0.72
0.91 0.89 0.89 0.89 0.89 0.91 0.91 0.98 1.12 1.10 1.10 1.16 1.08 1.00 0.99 1.03 1.11 1.11 0.98 0.86 0.79 0.73 0.66 0.68 0.66 0.61 0.56 0.56 0.54 0.57 0.63 0.70 0.71 0.68 0.63 0.67 0.66 0.63 0.62 0.63 0.59 0.59 0.62 0.62
0.95 0.89 0.90 0.93 0.92 0.91 0.99 1.11 1.25 1.29 1.34 1.41 1.35 1.17 1.06 0.98 1.00 1.01 0.95 0.88 0.83 0.76 0.72 0.69 0.66 0.63 0.60 0.57 0.52 0.52 0.58 0.66 0.70 0.71 0.70 0.71 0.72 0.71 0.66 0.63 0.57 0.54 0.54 0.50

GEFSNGP_prec_meanprecacc_222.txt.gz
Total_Precipitation_Accumulation
0.12 0.19 0.23 0.28 0.24 0.17 0.14 0.15 0.24 0.32 0.47 0.59 0.58 0.68 0.96 0.82 0.72 0.64 0.63 0.54 0.51 0.57 0.69 0.76 0.79 0.77 0.86 1.02 1.16 1.28 1.40 1.54 1.79 2.04 1.88 1.63 1.57 1.54 1.52 1.62 1.75 2.03 2.16 2.22
0.12 0.16 0.20 0.24 0.26 0.19 0.16 0.16 0.15 0.26 0.45 0.55 0.64 0.67 0.76 0.76 0.79 0.77 0.71 0.68 0.67 0.80 0.83 0.84 0.88 0.84 0.83 0.85 0.95 1.15 1.29 1.43 1.61 1.73 1.59 1.41 1.30 1.33 1.37 1.48 1.65 1.82 1.95 2.07
0.21 0.19 0.22 0.28 0.26 0.23 0.20 0.26 0.26 0.34 0.46 0.52 0.72 0.67 0.67 0.81 0.87 0.82 0.68 0.73 0.75 0.79 0.90 0.85 0.83 0.84 0.83 0.85 1.00 1.21 1.27 1.32 1.46 1.58 1.58 1.47 1.31 1.31 1.37 1.46 1.60 1.70 1.73 1.80
0.35 0.39 0.45 0.36 0.33 0.29 0.28 0.33 0.33 0.36 0.43 0.53 0.72 0.69 0.56 0.57 0.64 0.73 0.78 0.86 0.83 0.81 0.84 0.80 0.76 0.84 0.84 0.83 1.04 1.22 1.28 1.37 1.54 1.71 1.73 1.67 1.60 1.54 1.61 1.67 1.66 1.62 1.65 1.70
0.56 0.57 0.49 0.47 0.47 0.48 0.50 0.62 0.54 0.49 0.48 0.54 0.55 0.64 0.70 0.61 0.55 0.62 0.70 0.89 0.92 0.85 0.91 0.95 0.99 1.03 1.02 1.00 1.17 1.39 1.50 1.54 1.61 1.76 1.83 1.85 1.91 1.95 1.98 1.95 1.82 1.74 1.78 1.84
0.65 0.74 0.73 0.71 0.60 0.54 0.65 1.02 0.92 0.74 0.63 0.60 0.61 0.91 1.07 0.89 0.73 0.71 0.69 0.83 0.99 0.98 0.87 0.94 1.00 1.10 1.27 1.32 1.37 1.44 1.58 1.73 1.77 1.92 2.03 2.02 2.11 2.22 2.28 2.29 2.21 2.20 2.11 2.01
0.75 0.84 0.88 0.81 0.61 0.62 1.12 1.45 1.11 0.94 0.85 0.79 0.86 0.89 0.97 0.87 0.77 0.77 0.72 0.77 0.89 1.08 0.95 0.93 1.04 1.21 1.41 1.51 1.63 1.66 1.71 1.79 1.86 2.06 2.24 2.37 2.52 2.62 2.59 2.56 2.59 2.53 2.32 2.18
0.94 1.14 1.20 0.80 0.77 1.04 1.28 1.13 1.12 1.13 1.18 1.16 1.02 0.83 0.82 0.85 0.76 0.75 0.72 0.73 0.74 0.82 0.89 0.93 1.05 1.32 1.51 1.53 1.56 1.70 1.81 1.93 2.08 2.19 2.24 2.34 2.63 2.72 2.71 2.66 2.56 2.41 2.26 2.06
1.14 1.30 1.09 0.87 0.95 0.99 1.09 1.18 1.22 1.23 1.25 1.17 1.02 0.89 0.88 0.88 0.78 0.71 0.67 0.71 0.75 0.78 0.88 1.01 1.16 1.41 1.71 1.76 1.69 1.68 1.82 2.00 2.16 2.26 2.42 2.59 2.71 2.66 2.58 2.55 2.47 2.33 2.19 2.00
1.29 1.29 1.05 1.00 1.04 1.00 1.06 1.11 1.21 1.15 1.09 1.08 1.03 0.91 0.88 0.84 0.70 0.65 0.68 0.70 0.75 0.81 0.90 1.07 1.27 1.44 1.69 1.65 1.60 1.64 1.65 1.79 1.92 1.98 2.04 2.19 2.37 2.32 2.20 2.19 2.24 2.22 2.16 2.05
1.45 1.45 1.34 1.28 1.28 1.17 1.04 0.98 0.95 0.95 0.95 1.00 1.04 1.00 0.83 0.77 0.70 0.62 0.63 0.66 0.72 0.87 1.06 1.17 1.29 1.38 1.41 1.40 1.44 1.47 1.46 1.52 1.58 1.62 1.71 1.83 1.93 2.00 1.97 1.95 1.90 1.90 1.88 1.86
1.68 1.52 1.45 1.59 1.46 1.34 1.12 1.01 0.94 0.89 0.90 0.93 0.97 1.01 0.84 0.75 0.73 0.64 0.59 0.63 0.75 0.88 1.04 1.17 1.38 1.55 1.56 1.50 1.55 1.58 1.52 1.48 1.46 1.50 1.55 1.58 1.65 1.66 1.64 1.53 1.41 1.31 1.25 1.24
1.38 1.33 1.33 1.37 1.31 1.22 1.15 1.14 1.17 1.11 1.03 0.95 0.95 0.92 0.83 0.77 0.74 0.68 0.66 0.71 0.80 0.83 0.90 1.06 1.24 1.39 1.52 1.65 1.71 1.74 1.65 1.54 1.47 1.41 1.40 1.42 1.46 1.51 1.52 1.38 1.19 1.03 0.93 0.88
1.35 1.30 1.37 1.33 1.27 1.18 1.12 1.17 1.22 1.13 1.09 1.04 1.03 0.94 0.84 0.79 0.78 0.78 0.73 0.78 0.86 0.87 0.88 1.00 1.13 1.23 1.33 1.54 1.71 1.78 1.73 1.61 1.48 1.37 1.32 1.31 1.33 1.35 1.42 1.48 1.37 1.18 0.97 0.82
1.61 1.47 1.40 1.38 1.38 1.31 1.15 1.12 1.15 1.06 0.98 0.98 0.99 0.98 0.90 0.85 0.81 0.79 0.75 0.74 0.84 0.92 0.94 1.03 1.13 1.19 1.31 1.44 1.51 1.54 1.52 1.44 1.34 1.29 1.28 1.26 1.28 1.28 1.26 1.31 1.31 1.25 1.10 0.93
1.60 1.46 1.29 1.28 1.36 1.39 1.28 1.18 1.14 1.10 1.00 0.91 0.90 0.85 0.82 0.76 0.74 0.75 0.72 0.74 0.85 0.93 0.94 1.08 1.17 1.19 1.29 1.45 1.48 1.50 1.49 1.43 1.30 1.24 1.27 1.27 1.24 1.24 1.21 1.27 1.27 1.27 1.15 0.98
1.50 1.48 1.31 1.14 1.16 1.23 1.21 1.12 1.03 1.01 0.98 0.90 0.85 0.82 0.76 0.72 0.73 0.71 0.65 0.66 0.75 0.86 0.94 1.10 1.18 1.18 1.28 1.42 1.53 1.50 1.44 1.37 1.23 1.16 1.17 1.21 1.24 1.22 1.17 1.18 1.19 1.23 1.13 0.92
1.21 1.24 1.21 1.12 1.04 1.04 1.09 1.05 1.00 0.98 0.98 0.87 0.81 0.84 0.84 0.85 0.93 0.95 0.88 0.81 0.84 0.85 0.87 0.98 1.07 1.13 1.23 1.34 1.41 1.44 1.42 1.35 1.20 1.04 1.01 1.06 1.10 1.12 1.11 1.09 1.09 1.12 1.04 0.83
1.07 1.17 1.14 1.07 1.03 0.98 1.07 1.07 1.04 1.03 0.96 0.86 0.79 0.80 0.86 0.97 1.10 1.15 1.12 1.08 1.08 1.05 0.96 0.93 1.02 1.04 1.13 1.22 1.25 1.31 1.29 1.21 1.10 0.93 0.89 0.95 1.00 1.07 1.06 1.00 0.99 0.98 0.89 0.76
1.13 1.17 1.12 1.05 1.09 1.12 1.14 1.12 1.09 1.10 0.97 0.86 0.88 0.90 0.95 1.01 1.13 1.22 1.21 1.15 1.11 1.12 1.05 0.97 0.93 0.94 0.98 1.03 1.07 1.10 1.09 1.10 1.07 0.90 0.85 0.97 1.05 1.11 1.06 0.96 0.94 0.90 0.82 0.80
1.06 1.08 1.03 0.94 0.92 0.93 0.95 0.96 0.98 1.02 1.04 1.00 1.10 1.20 1.22 1.13 1.14 1.28 1.37 1.22 1.02 1.01 0.99 0.95 0.85 0.87 0.88 0.97 1.01 1.01 1.00 1.00 1.04 0.92 0.84 0.92 1.00 1.04 1.01 0.93 0.87 0.81 0.77 0.80
0.96 0.99 0.99 0.94 0.89 0.81 0.74 0.75 0.84 0.93 1.02 1.08 1.13 1.25 1.34 1.34 1.34 1.31 1.23 1.20 1.08 1.05 0.94 0.84 0.75 0.73 0.74 0.81 0.90 0.95 0.94 0.93 0.97 0.95 0.90 0.94 1.01 1.02 1.01 0.93 0.88 0.81 0.78 0.77
0.93 0.94 0.93 0.90 0.93 0.88 0.79 0.77 0.76 0.83 0.91 0.99 1.07 1.25 1.36 1.37 1.44 1.58 1.39 1.09 0.99 1.02 0.92 0.79 0.73 0.70 0.65 0.61 0.74 0.84 0.87 0.91 0.92 0.90 0.87 0.84 0.84 0.87 0.86 0.79 0.75 0.75 0.77 0.78
0.95 0.91 0.94 0.93 0.92 0.85 0.81 0.80 0.83 0.86 0.84 0.86 0.94 1.11 1.32 1.45 1.39 1.27 1.24 1.13 0.97 0.88 0.82 0.79 0.71 0.68 0.66 0.60 0.66 0.75 0.79 0.83 0.80 0.77 0.76 0.73 0.75 0.79 0.76 0.72 0.70 0.72 0.75 0.77
0.94 0.90 0.89 0.94 0.98 0.96 0.91 0.90 0.94 0.94 0.91 0.91 0.90 0.95 1.05 1.24 1.37 1.20 1.00 0.93 0.88 0.78 0.73 0.73 0.67 0.62 0.56 0.53 0.55 0.62 0.68 0.71 0.69 0.67 0.65 0.69 0.72 0.72 0.66 0.63 0.64 0.67 0.70 0.73
0.94 0.91 0.92 0.92 0.94 0.95 0.95 1.04 1.17 1.13 1.14 1.19 1.11 1.03 1.03 1.07 1.15 1.14 1.01 0.89 0.81 0.75 0.68 0.69 0.67 0.63 0.58 0.57 0.56 0.59 0.64 0.72 0.73 0.69 0.65 0.70 0.68 0.65 0.64 0.64 0.60 0.60 0.63 0.64
0.98 0.92 0.93 0.95 0.95 0.94 1.02 1.15 1.30 1.33 1.38 1.45 1.38 1.20 1.09 1.01 1.03 1.05 0.99 0.91 0.86 0.79 0.74 0.71 0.67 0.65 0.62 0.59 0.54 0.53 0.59 0.67 0.71 0.72 0.72 0.74 0.76 0.74 0.68 0.64 0.59 0.56 0.56 0.53

GEFSNGP_prec_meanprecacc_228.txt.gz
Total_Precipitation_Accumulation
0.12 0.19 0.23 0.28 0.24 0.17 0.14 0.15 0.24 0.32 0.47 0.59 0.58 0.69 0.96 0.82 0.72 0.64 0.63 0.54 0.51 0.58 0.70 0.77 0.79 0.77 0.87 1.02 1.16 1.29 1.41 1.55 1.79 2.05 1.90 1.65 1.59 1.56 1.53 1.63 1.76 2.04 2.17 2.23
0.12 0.16 0.20 0.24 0.26 0.19 0.16 0.16 0.15 0.26 0.45 0.55 0.64 0.67 0.76 0.76 0.79 0.77 0.71 0.68 0.68 0.80 0.83 0.85 0.88 0.84 0.83 0.86 0.96 1.16 1.31 1.44 1.61 1.74 1.60 1.43 1.32 1.35 1.39 1.49 1.66 1.83 1.96 2.08
0.21 0.19 0.22 0.28 0.26 0.23 0.20 0.26 0.26 0.34 0.46 0.52 0.72 0.67 0.68 0.81 0.88 0.83 0.69 0.74 0.76 0.80 0.90 0.85 0.83 0.84 0.84 0.86 1.02 1.23 1.28 1.33 1.46 1.58 1.59 1.49 1.33 1.33 1.39 1.48 1.63 1.72 1.74 1.81
0.35 0.39 0.45 0.36 0.33 0.29 0.28 0.33 0.33 0.36 0.43 0.54 0.72 0.70 0.56 0.57 0.64 0.74 0.78 0.86 0.83 0.81 0.84 0.80 0.76 0.84 0.85 0.84 1.05 1.24 1.30 1.39 1.56 1.72 1.74 1.68 1.61 1.56 1.64 1.70 1.68 1.64 1.68 1.72
0.56 0.57 0.49 0.47 0.47 0.48 0.50 0.62 0.55 0.49 0.49 0.54 0.55 0.64 0.70 0.61 0.55 0.62 0.70 0.89 0.92 0.85 0.91 0.95 0.99 1.03 1.03 1.01 1.19 1.41 1.52 1.55 1.62 1.77 1.83 1.86 1.94 1.98 2.01 1.98 1.84 1.77 1.81 1.87
0.65 0.74 0.73 0.71 0.60 0.54 0.65 1.02 0.92 0.74 0.63 0.61 0.61 0.91 1.07 0.89 0.73 0.71 0.69 0.83 0.99 0.98 0.87 0.94 1.01 1.10 1.27 1.33 1.38 1.45 1.59 1.74 1.78 1.93 2.05 2.03 2.13 2.23 2.30 2.32 2.23 2.21 2.12 2.02
0.75 0.84 0.88 0.81 0.62 0.62 1.12 1.45 1.11 0.94 0.85 0.79 0.86 0.89 0.97 0.87 0.77 0.77 0.72 0.77 0.89 1.08 0.95 0.93 1.04 1.21 1.42 1.52 1.64 1.67 1.72 1.80 1.88 2.07 2.25 2.38 2.53 2.63 2.61 2.58 2.61 2.55 2.33 2.19
0.94 1.14 1.20 0.80 0.77 1.04 1.28 1.14 1.12 1.13 1.18 1.16 1.02 0.83 0.82 0.85 0.76 0.75 0.72 0.73 0.74 0.82 0.89 0.94 1.05 1.33 1.51 1.53 1.57 1.71 1.83 1.95 2.10 2.22 2.26 2.35 2.65 2.73 2.72 2.68 2.58 2.43 2.27 2.07
1.14 1.30 1.09 0.87 0.95 0.99 1.09 1.18 1.22 1.23 1.26 1.17 1.02 0.89 0.88 0.88 0.78 0.71 0.67 0.71 0.76 0.78 0.88 1.01 1.17 1.42 1.71 1.76 1.70 1.70 1.84 2.03 2.21 2.32 2.47 2.62 2.73 2.67 2.59 2.56 2.47 2.34 2.20 2.00
1.29 1.29 1.05 1.00 1.04 1.00 1.06 1.11 1.21 1.15 1.09 1.08 1.03 0.91 0.88 0.84 0.70 0.65 0.68 0.70 0.75 0.82 0.92 1.07 1.28 1.46 1.71 1.67 1.62 1.66 1.68 1.83 1.97 2.03 2.09 2.23 2.40 2.34 2.21 2.20 2.25 2.23 2.17 2.05
1.45 1.45 1.34 1.28 1.29 1.17 1.04 0.99 0.95 0.96 0.96 1.00 1.04 1.00 0.84 0.78 0.71 0.63 0.64 0.67 0.73 0.88 1.08 1.18 1.30 1.39 1.43 1.42 1.47 1.51 1.49 1.55 1.61 1.65 1.74 1.85 1.95 2.01 1.97 1.95 1.90 1.90 1.88 1.87
1.68 1.52 1.45 1.59 1.47 1.34 1.13 1.02 0.95 0.90 0.90 0.94 0.98 1.02 0.85 0.76 0.73 0.65 0.59 0.64 0.75 0.89 1.05 1.19 1.39 1.56 1.58 1.53 1.57 1.62 1.55 1.51 1.49 1.52 1.57 1.59 1.66 1.67 1.65 1.53 1.41 1.31 1.25 1.24
1.38 1.33 1.33 1.37 1.31 1.23 1.15 1.15 1.17 1.12 1.03 0.96 0.96 0.93 0.84 0.78 0.75 0.69 0.67 0.73 0.81 0.84 0.92 1.09 1.27 1.42 1.55 1.68 1.73 1.77 1.67 1.56 1.50 1.43 1.42 1.43 1.47 1.53 1.54 1.40 1.20 1.04 0.93 0.89
1.35 1.30 1.37 1.33 1.28 1.18 1.13 1.17 1.22 1.13 1.09 1.05 1.03 0.94 0.86 0.81 0.81 0.81 0.75 0.80 0.89 0.90 0.91 1.02 1.15 1.26 1.36 1.57 1.73 1.81 1.76 1.64 1.50 1.40 1.34 1.34 1.36 1.38 1.45 1.51 1.39 1.20 0.99 0.83
1.61 1.47 1.40 1.38 1.38 1.32 1.15 1.13 1.15 1.06 0.98 0.99 1.00 0.98 0.92 0.87 0.83 0.82 0.79 0.78 0.87 0.95 0.97 1.06 1.15 1.21 1.33 1.46 1.54 1.56 1.54 1.46 1.36 1.32 1.31 1.29 1.31 1.32 1.31 1.35 1.33 1.26 1.12 0.94
1.60 1.46 1.30 1.28 1.36 1.39 1.29 1.18 1.15 1.10 1.01 0.92 0.91 0.86 0.85 0.82 0.81 0.80 0.77 0.79 0.90 0.97 0.99 1.11 1.20 1.22 1.32 1.47 1.51 1.53 1.51 1.46 1.32 1.27 1.29 1.29 1.27 1.27 1.24 1.29 1.29 1.28 1.18 1.00
1.51 1.48 1.32 1.14 1.17 1.23 1.21 1.13 1.04 1.01 0.99 0.91 0.87 0.84 0.79 0.78 0.82 0.81 0.73 0.72 0.81 0.92 1.00 1.15 1.22 1.22 1.32 1.46 1.56 1.53 1.47 1.40 1.27 1.19 1.19 1.24 1.27 1.25 1.21 1.21 1.21 1.24 1.15 0.94
1.21 1.25 1.22 1.12 1.04 1.04 1.10 1.06 1.00 0.99 0.99 0.89 0.82 0.86 0.87 0.90 0.99 1.03 0.98 0.91 0.93 0.93 0.94 1.05 1.13 1.18 1.28 1.38 1.45 1.48 1.45 1.38 1.23 1.07 1.04 1.09 1.14 1.15 1.15 1.13 1.12 1.14 1.07 0.86
1.08 1.17 1.15 1.08 1.04 0.98 1.08 1.08 1.05 1.04 0.98 0.89 0.83 0.84 0.90 1.02 1.15 1.20 1.19 1.20 1.22 1.18 1.07 1.02 1.10 1.10 1.19 1.29 1.32 1.38 1.34 1.26 1.14 0.96 0.93 1.00 1.05 1.10 1.08 1.02 1.02 1.02 0.92 0.79
1.14 1.18 1.13 1.06 1.09 1.13 1.15 1.12 1.10 1.11 1.00 0.91 0.93 0.95 1.00 1.06 1.20 1.28 1.28 1.24 1.21 1.21 1.13 1.04 1.00 0.99 1.04 1.10 1.14 1.16 1.15 1.15 1.12 0.94 0.89 1.01 1.09 1.15 1.09 0.98 0.96 0.93 0.84 0.82
1.08 1.10 1.04 0.95 0.93 0.94 0.95 0.97 0.99 1.05 1.09 1.06 1.16 1.25 1.26 1.19 1.22 1.36 1.45 1.31 1.08 1.07 1.04 0.99 0.90 0.92 0.93 1.02 1.06 1.06 1.05 1.04 1.08 0.97 0.89 0.97 1.04 1.08 1.04 0.95 0.90 0.83 0.79 0.82
0.98 1.01 1.01 0.96 0.91 0.83 0.76 0.77 0.88 0.99 1.08 1.13 1.18 1.30 1.37 1.37 1.40 1.41 1.33 1.28 1.15 1.10 0.99 0.88 0.79 0.80 0.81 0.85 0.94 0.98 0.97 0.97 1.02 0.99 0.93 0.98 1.05 1.06 1.03 0.95 0.90 0.83 0.79 0.78
0.95 0.96 0.95 0.92 0.97 0.91 0.82 0.81 0.81 0.89 0.96 1.04 1.11 1.29 1.40 1.39 1.47 1.65 1.48 1.16 1.05 1.07 0.98 0.84 0.77 0.76 0.72 0.65 0.77 0.88 0.90 0.94 0.95 0.93 0.90 0.87 0.88 0.90 0.89 0.81 0.77 0.76 0.78 0.79
0.99 0.94 0.97 0.97 0.98 0.90 0.84 0.84 0.86 0.90 0.87 0.89 0.98 1.15 1.34 1.47 1.41 1.32 1.31 1.20 1.04 0.94 0.87 0.83 0.74 0.71 0.71 0.63 0.69 0.78 0.84 0.87 0.83 0.80 0.79 0.77 0.78 0.81 0.79 0.75 0.72 0.73 0.77 0.78
0.99 0.95 0.94 0.99 1.04 1.01 0.95 0.93 0.96 0.96 0.93 0.94 0.93 0.97 1.07 1.26 1.40 1.25 1.05 0.98 0.93 0.82 0.77 0.77 0.70 0.65 0.60 0.57 0.59 0.66 0.73 0.75 0.71 0.69 0.68 0.71 0.74 0.74 0.68 0.65 0.65 0.68 0.72 0.75
0.99 0.98 0.97 0.99 1.01 1.00 1.00 1.08 1.19 1.15 1.15 1.21 1.12 1.05 1.05 1.08 1.16 1.16 1.04 0.91 0.85 0.79 0.71 0.72 0.70 0.66 0.61 0.61 0.60 0.62 0.68 0.75 0.76 0.72 0.67 0.72 0.70 0.67 0.66 0.66 0.62 0.62 0.64 0.65
1.02 0.97 0.97 1.01 1.01 0.98 1.06 1.19 1.32 1.35 1.40 1.46 1.40 1.21 1.11 1.03 1.05 1.07 1.01 0.93 0.88 0.81 0.76 0.74 0.70 0.68 0.65 0.62 0.57 0.56 0.62 0.70 0.73 0.74 0.74 0.76 0.78 0.75 0.70 0.66 0.61 0.58 0.57 0.54